Time,TemperatureF,DewpointF,PressureIn,WindDirection,WindDirectionDegrees,WindSpeedMPH,WindSpeedGustMPH,Humidity,HourlyPrecipIn,Conditions,Clouds,dailyrainin,SoftwareType,DateUTC
2013-03-29 00:00:00,38.1,29.9,29.47,West,261,0.0,2.0,72,0.00,,,0.00,WUHU216DAVISVP2,2013-03-29 04:00:00,
2013-03-29 00:05:00,38.2,30.0,29.47,West,261,1.0,3.0,72,0.00,,,0.00,WUHU216DAVISVP2,2013-03-29 04:05:00,
2013-03-29 00:10:00,38.3,30.1,29.47,West,261,1.0,4.0,72,0.00,,,0.00,WUHU216DAVISVP2,2013-03-29 04:10:00,
2013-03-29 00:11:00,38.3,30.1,29.47,West,261,0.0,4.0,72,0.00,,,0.00,WUHU216DAVISVP2,2013-03-29 04:11:00,
2013-03-29 00:15:00,38.3,30.1,29.46,West,261,1.0,4.0,72,0.00,,,0.00,WUHU216DAVISVP2,2013-03-29 04:15:00,
2013-03-29 00:17:00,38.4,29.8,29.46,West,261,0.0,4.0,71,0.00,,,0.00,WUHU216DAVISVP2,2013-03-29 04:17:00,
2013-03-29 00:20:00,38.3,30.1,29.46,West,261,0.0,4.0,72,0.00,,,0.00,WUHU216DAVISVP2,2013-03-29 04:20:00,
2013-03-29 00:22:00,38.3,30.1,29.46,West,261,0.0,2.0,72,0.00,,,0.00,WUHU216DAVISVP2,2013-03-29 04:22:00,
2013-03-29 00:25:00,38.2,30.0,29.46,West,261,0.0,2.0,72,0.00,,,0.00,WUHU216DAVISVP2,2013-03-29 04:25:00,
2013-03-29 00:27:00,38.1,29.9,29.46,West,261,0.0,2.0,72,0.00,,,0.00,WUHU216DAVISVP2,2013-03-29 04:27:00,
2013-03-29 00:30:00,38.0,29.8,29.46,West,261,0.0,2.0,72,0.00,,,0.00,WUHU216DAVISVP2,2013-03-29 04:30:00,
2013-03-29 00:32:00,37.8,29.6,29.46,West,261,0.0,2.0,72,0.00,,,0.00,WUHU216DAVISVP2,2013-03-29 04:32:00,
2013-03-29 00:35:00,37.7,29.8,29.46,West,261,0.0,0.0,73,0.00,,,0.00,WUHU216DAVISVP2,2013-03-29 04:35:00,
2013-03-29 00:37:00,37.6,29.7,29.46,West,261,1.0,2.0,73,0.00,,,0.00,WUHU216DAVISVP2,2013-03-29 04:37:00,
2013-03-29 00:40:00,37.6,29.7,29.46,West,261,1.0,2.0,73,0.00,,,0.00,WUHU216DAVISVP2,2013-03-29 04:40:00,
2013-03-29 00:41:00,37.6,29.8,29.46,West,261,2.0,2.0,73,0.00,,,0.00,WUHU216DAVISVP2,2013-03-29 04:41:00,
2013-03-29 00:42:00,37.6,29.8,29.46,West,261,2.0,4.0,73,0.00,,,0.00,WUHU216DAVISVP2,2013-03-29 04:42:00,
2013-03-29 00:45:00,37.6,29.8,29.46,West,261,1.0,4.0,73,0.00,,,0.00,WUHU216DAVISVP2,2013-03-29 04:45:00,
2013-03-29 00:46:00,37.6,29.8,29.46,West,261,1.0,4.0,73,0.00,,,0.00,WUHU216DAVISVP2,2013-03-29 04:46:00,
2013-03-29 00:47:00,37.6,29.5,29.46,West,261,1.0,4.0,72,0.00,,,0.00,WUHU216DAVISVP2,2013-03-29 04:47:00,
2013-03-29 00:50:00,37.6,29.5,29.46,West,261,1.0,4.0,72,0.00,,,0.00,WUHU216DAVISVP2,2013-03-29 04:50:00,
2013-03-29 00:51:00,37.7,29.9,29.46,West,261,2.0,4.0,73,0.00,,,0.00,WUHU216DAVISVP2,2013-03-29 04:51:00,
2013-03-29 00:53:00,37.7,29.6,29.46,West,261,1.0,4.0,72,0.00,,,0.00,WUHU216DAVISVP2,2013-03-29 04:53:00,
2013-03-29 00:55:00,37.8,29.6,29.46,West,261,2.0,4.0,72,0.00,,,0.00,WUHU216DAVISVP2,2013-03-29 04:55:00,
2013-03-29 00:56:00,37.8,29.6,29.46,West,261,1.0,4.0,72,0.00,,,0.00,WUHU216DAVISVP2,2013-03-29 04:56:00,
2013-03-29 00:58:00,37.9,29.7,29.46,West,261,2.0,4.0,72,0.00,,,0.00,WUHU216DAVISVP2,2013-03-29 04:58:00,
2013-03-29 01:01:00,38.0,29.8,29.46,West,261,2.0,4.0,72,0.00,,,0.00,WUHU216DAVISVP2,2013-03-29 05:01:00,
2013-03-29 01:04:00,38.0,29.5,29.46,West,261,2.0,4.0,71,0.00,,,0.00,WUHU216DAVISVP2,2013-03-29 05:04:00,
2013-03-29 01:06:00,38.0,29.5,29.46,West,261,1.0,4.0,71,0.00,,,0.00,WUHU216DAVISVP2,2013-03-29 05:06:00,
2013-03-29 01:09:00,37.9,29.7,29.46,West,261,0.0,4.0,72,0.00,,,0.00,WUHU216DAVISVP2,2013-03-29 05:09:00,
2013-03-29 01:11:00,37.7,29.6,29.46,West,261,1.0,4.0,72,0.00,,,0.00,WUHU216DAVISVP2,2013-03-29 05:11:00,
2013-03-29 01:12:00,37.7,29.6,29.46,West,261,1.0,4.0,72,0.00,,,0.00,WUHU216DAVISVP2,2013-03-29 05:12:00,
2013-03-29 01:14:00,37.6,29.5,29.46,West,261,2.0,4.0,72,0.00,,,0.00,WUHU216DAVISVP2,2013-03-29 05:14:00,
2013-03-29 01:17:00,37.6,29.5,29.47,West,261,1.0,4.0,72,0.00,,,0.00,WUHU216DAVISVP2,2013-03-29 05:17:00,
2013-03-29 01:20:00,37.6,29.5,29.47,West,261,1.0,4.0,72,0.00,,,0.00,WUHU216DAVISVP2,2013-03-29 05:20:00,
2013-03-29 01:22:00,37.6,29.5,29.47,West,261,1.0,4.0,72,0.00,,,0.00,WUHU216DAVISVP2,2013-03-29 05:22:00,
2013-03-29 01:23:00,37.6,29.5,29.47,West,261,2.0,4.0,72,0.00,,,0.00,WUHU216DAVISVP2,2013-03-29 05:23:00,
2013-03-29 01:25:00,37.5,29.4,29.47,West,261,2.0,4.0,72,0.00,,,0.00,WUHU216DAVISVP2,2013-03-29 05:25:00,
2013-03-29 01:27:00,37.5,29.4,29.47,West,261,2.0,4.0,72,0.00,,,0.00,WUHU216DAVISVP2,2013-03-29 05:27:00,
2013-03-29 01:28:00,37.5,29.4,29.47,West,261,2.0,4.0,72,0.00,,,0.00,WUHU216DAVISVP2,2013-03-29 05:28:00,
2013-03-29 01:30:00,37.5,29.4,29.46,West,261,2.0,5.0,72,0.00,,,0.00,WUHU216DAVISVP2,2013-03-29 05:30:00,
2013-03-29 01:33:00,37.4,29.3,29.47,West,261,2.0,5.0,72,0.00,,,0.00,WUHU216DAVISVP2,2013-03-29 05:33:00,
2013-03-29 01:35:00,37.3,29.2,29.47,West,261,1.0,5.0,72,0.00,,,0.00,WUHU216DAVISVP2,2013-03-29 05:35:00,
2013-03-29 01:38:00,37.2,29.4,29.47,West,261,0.0,5.0,73,0.00,,,0.00,WUHU216DAVISVP2,2013-03-29 05:38:00,
2013-03-29 01:40:00,37.2,29.4,29.46,West,261,0.0,5.0,73,0.00,,,0.00,WUHU216DAVISVP2,2013-03-29 05:40:00,
2013-03-29 01:43:00,37.1,29.3,29.47,West,261,0.0,5.0,73,0.00,,,0.00,WUHU216DAVISVP2,2013-03-29 05:43:00,
2013-03-29 01:44:00,37.1,29.3,29.47,West,261,0.0,5.0,73,0.00,,,0.00,WUHU216DAVISVP2,2013-03-29 05:44:00,
2013-03-29 01:45:00,37.0,29.2,29.47,West,261,0.0,5.0,73,0.00,,,0.00,WUHU216DAVISVP2,2013-03-29 05:45:00,
2013-03-29 01:48:00,36.9,29.1,29.47,West,261,0.0,5.0,73,0.00,,,0.00,WUHU216DAVISVP2,2013-03-29 05:48:00,
2013-03-29 01:49:00,36.8,29.0,29.47,West,261,0.0,4.0,73,0.00,,,0.00,WUHU216DAVISVP2,2013-03-29 05:49:00,
2013-03-29 01:50:00,36.7,29.2,29.47,West,261,0.0,2.0,74,0.00,,,0.00,WUHU216DAVISVP2,2013-03-29 05:50:00,
2013-03-29 01:53:00,36.5,29.1,29.47,West,261,0.0,2.0,74,0.00,,,0.00,WUHU216DAVISVP2,2013-03-29 05:53:00,
2013-03-29 01:54:00,36.5,29.1,29.47,West,261,0.0,2.0,74,0.00,,,0.00,WUHU216DAVISVP2,2013-03-29 05:54:00,
2013-03-29 01:55:00,36.4,29.0,29.47,West,261,2.0,2.0,74,0.00,,,0.00,WUHU216DAVISVP2,2013-03-29 05:55:00,
2013-03-29 01:58:00,36.4,29.3,29.47,West,261,2.0,2.0,75,0.00,,,0.00,WUHU216DAVISVP2,2013-03-29 05:58:00,
2013-03-29 01:59:00,36.4,29.3,29.47,West,261,1.0,2.0,75,0.00,,,0.00,WUHU216DAVISVP2,2013-03-29 05:59:00,
2013-03-29 02:01:00,36.4,29.3,29.47,West,261,2.0,2.0,75,0.00,,,0.00,WUHU216DAVISVP2,2013-03-29 06:01:00,
2013-03-29 02:03:00,36.5,29.4,29.47,West,261,2.0,4.0,75,0.00,,,0.00,WUHU216DAVISVP2,2013-03-29 06:03:00,
2013-03-29 02:04:00,36.5,29.4,29.47,West,261,1.0,4.0,75,0.00,,,0.00,WUHU216DAVISVP2,2013-03-29 06:04:00,
2013-03-29 02:06:00,36.5,29.4,29.47,West,261,1.0,4.0,75,0.00,,,0.00,WUHU216DAVISVP2,2013-03-29 06:06:00,
2013-03-29 02:08:00,36.6,29.1,29.47,West,261,1.0,4.0,74,0.00,,,0.00,WUHU216DAVISVP2,2013-03-29 06:08:00,
2013-03-29 02:09:00,36.6,29.1,29.47,West,261,1.0,4.0,74,0.00,,,0.00,WUHU216DAVISVP2,2013-03-29 06:09:00,
2013-03-29 02:11:00,36.6,29.1,29.46,West,261,1.0,4.0,74,0.00,,,0.00,WUHU216DAVISVP2,2013-03-29 06:11:00,
2013-03-29 02:14:00,36.6,29.1,29.46,West,261,2.0,4.0,74,0.00,,,0.00,WUHU216DAVISVP2,2013-03-29 06:14:00,
2013-03-29 02:17:00,36.6,29.1,29.47,West,261,1.0,4.0,74,0.00,,,0.00,WUHU216DAVISVP2,2013-03-29 06:17:00,
2013-03-29 02:19:00,36.6,29.1,29.47,West,261,1.0,4.0,74,0.00,,,0.00,WUHU216DAVISVP2,2013-03-29 06:19:00,
2013-03-29 02:22:00,36.5,29.1,29.47,West,261,1.0,2.0,74,0.00,,,0.00,WUHU216DAVISVP2,2013-03-29 06:22:00,
2013-03-29 02:24:00,36.5,29.1,29.47,West,261,0.0,2.0,74,0.00,,,0.00,WUHU216DAVISVP2,2013-03-29 06:24:00,
2013-03-29 02:27:00,36.4,29.0,29.47,West,261,0.0,2.0,74,0.00,,,0.00,WUHU216DAVISVP2,2013-03-29 06:27:00,
2013-03-29 02:29:00,36.3,28.9,29.47,West,261,0.0,2.0,74,0.00,,,0.00,WUHU216DAVISVP2,2013-03-29 06:29:00,
2013-03-29 02:32:00,36.2,29.1,29.47,West,261,2.0,2.0,75,0.00,,,0.00,WUHU216DAVISVP2,2013-03-29 06:32:00,
2013-03-29 02:34:00,36.2,29.1,29.47,West,261,1.0,2.0,75,0.00,,,0.00,WUHU216DAVISVP2,2013-03-29 06:34:00,
2013-03-29 02:35:00,36.2,29.1,29.47,West,261,1.0,2.0,75,0.00,,,0.00,WUHU216DAVISVP2,2013-03-29 06:35:00,
2013-03-29 02:37:00,36.3,29.2,29.46,West,261,2.0,2.0,75,0.00,,,0.00,WUHU216DAVISVP2,2013-03-29 06:37:00,
2013-03-29 02:39:00,36.3,29.2,29.46,West,261,1.0,2.0,75,0.00,,,0.00,WUHU216DAVISVP2,2013-03-29 06:39:00,
2013-03-29 02:40:00,36.4,29.3,29.46,West,261,1.0,2.0,75,0.00,,,0.00,WUHU216DAVISVP2,2013-03-29 06:40:00,
2013-03-29 02:43:00,36.4,29.0,29.46,West,261,0.0,2.0,74,0.00,,,0.00,WUHU216DAVISVP2,2013-03-29 06:43:00,
2013-03-29 02:44:00,36.3,28.9,29.46,West,261,0.0,2.0,74,0.00,,,0.00,WUHU216DAVISVP2,2013-03-29 06:44:00,
2013-03-29 02:45:00,36.3,28.9,29.46,West,261,0.0,2.0,74,0.00,,,0.00,WUHU216DAVISVP2,2013-03-29 06:45:00,
2013-03-29 02:48:00,36.3,28.9,29.46,West,261,1.0,2.0,74,0.00,,,0.00,WUHU216DAVISVP2,2013-03-29 06:48:00,
2013-03-29 02:49:00,36.2,28.8,29.46,West,261,0.0,2.0,74,0.00,,,0.00,WUHU216DAVISVP2,2013-03-29 06:49:00,
2013-03-29 02:50:00,36.2,28.8,29.46,West,261,0.0,2.0,74,0.00,,,0.00,WUHU216DAVISVP2,2013-03-29 06:50:00,
2013-03-29 02:53:00,36.1,29.0,29.46,West,261,0.0,2.0,75,0.00,,,0.00,WUHU216DAVISVP2,2013-03-29 06:53:00,
2013-03-29 02:54:00,36.0,28.9,29.46,West,261,0.0,2.0,75,0.00,,,0.00,WUHU216DAVISVP2,2013-03-29 06:54:00,
2013-03-29 02:55:00,36.0,28.9,29.46,West,261,0.0,2.0,75,0.00,,,0.00,WUHU216DAVISVP2,2013-03-29 06:55:00,
2013-03-29 02:58:00,35.7,28.6,29.46,West,261,0.0,2.0,75,0.00,,,0.00,WUHU216DAVISVP2,2013-03-29 06:58:00,
2013-03-29 03:00:00,35.6,28.5,29.46,West,261,0.0,2.0,75,0.00,,,0.00,WUHU216DAVISVP2,2013-03-29 07:00:00,
2013-03-29 03:03:00,35.5,28.7,29.46,West,261,0.0,2.0,76,0.00,,,0.00,WUHU216DAVISVP2,2013-03-29 07:03:00,
2013-03-29 03:05:00,35.4,28.6,29.46,West,261,0.0,2.0,76,0.00,,,0.00,WUHU216DAVISVP2,2013-03-29 07:05:00,
2013-03-29 03:08:00,35.4,28.9,29.46,West,261,0.0,2.0,77,0.00,,,0.00,WUHU216DAVISVP2,2013-03-29 07:08:00,
2013-03-29 03:10:00,35.4,28.9,29.46,West,261,0.0,2.0,77,0.00,,,0.00,WUHU216DAVISVP2,2013-03-29 07:10:00,
2013-03-29 03:13:00,35.4,28.9,29.46,West,261,0.0,2.0,77,0.00,,,0.00,WUHU216DAVISVP2,2013-03-29 07:13:00,
2013-03-29 03:15:00,35.3,28.8,29.46,West,261,1.0,2.0,77,0.00,,,0.00,WUHU216DAVISVP2,2013-03-29 07:15:00,
2013-03-29 03:19:00,35.3,28.8,29.46,West,261,1.0,2.0,77,0.00,,,0.00,WUHU216DAVISVP2,2013-03-29 07:19:00,
2013-03-29 03:20:00,35.3,28.8,29.46,West,261,1.0,2.0,77,0.00,,,0.00,WUHU216DAVISVP2,2013-03-29 07:20:00,
2013-03-29 03:24:00,35.2,29.1,29.46,West,261,1.0,2.0,78,0.00,,,0.00,WUHU216DAVISVP2,2013-03-29 07:24:00,
2013-03-29 03:25:00,35.2,29.1,29.46,West,261,0.0,2.0,78,0.00,,,0.00,WUHU216DAVISVP2,2013-03-29 07:25:00,
2013-03-29 03:26:00,35.2,29.1,29.46,West,261,0.0,2.0,78,0.00,,,0.00,WUHU216DAVISVP2,2013-03-29 07:26:00,
2013-03-29 03:29:00,35.2,29.1,29.46,West,261,1.0,2.0,78,0.00,,,0.00,WUHU216DAVISVP2,2013-03-29 07:29:00,
2013-03-29 03:31:00,35.1,29.0,29.46,West,261,1.0,2.0,78,0.00,,,0.00,WUHU216DAVISVP2,2013-03-29 07:31:00,
2013-03-29 03:34:00,35.1,29.0,29.46,West,261,2.0,2.0,78,0.00,,,0.00,WUHU216DAVISVP2,2013-03-29 07:34:00,
2013-03-29 03:36:00,35.1,29.0,29.46,West,261,0.0,2.0,78,0.00,,,0.00,WUHU216DAVISVP2,2013-03-29 07:36:00,
2013-03-29 03:37:00,35.1,29.0,29.46,West,261,0.0,2.0,78,0.00,,,0.00,WUHU216DAVISVP2,2013-03-29 07:37:00,
2013-03-29 03:39:00,35.1,29.0,29.46,West,261,2.0,2.0,78,0.00,,,0.00,WUHU216DAVISVP2,2013-03-29 07:39:00,
2013-03-29 03:41:00,35.2,28.7,29.46,West,261,2.0,2.0,77,0.00,,,0.00,WUHU216DAVISVP2,2013-03-29 07:41:00,
2013-03-29 03:42:00,35.2,28.7,29.46,West,261,1.0,2.0,77,0.00,,,0.00,WUHU216DAVISVP2,2013-03-29 07:42:00,
2013-03-29 03:44:00,35.2,28.7,29.46,West,261,1.0,2.0,77,0.00,,,0.00,WUHU216DAVISVP2,2013-03-29 07:44:00,
2013-03-29 03:46:00,35.2,28.7,29.45,West,261,1.0,2.0,77,0.00,,,0.00,WUHU216DAVISVP2,2013-03-29 07:46:00,
2013-03-29 03:47:00,35.2,28.7,29.46,West,261,2.0,2.0,77,0.00,,,0.00,WUHU216DAVISVP2,2013-03-29 07:47:00,
2013-03-29 03:49:00,35.1,28.6,29.45,West,261,2.0,2.0,77,0.00,,,0.00,WUHU216DAVISVP2,2013-03-29 07:49:00,
2013-03-29 03:52:00,35.1,28.6,29.45,West,261,0.0,2.0,77,0.00,,,0.00,WUHU216DAVISVP2,2013-03-29 07:52:00,
2013-03-29 03:54:00,35.0,28.6,29.45,West,261,0.0,2.0,77,0.00,,,0.00,WUHU216DAVISVP2,2013-03-29 07:54:00,
2013-03-29 03:57:00,34.8,28.4,29.45,West,261,0.0,2.0,77,0.00,,,0.00,WUHU216DAVISVP2,2013-03-29 07:57:00,
2013-03-29 03:58:00,34.8,28.4,29.45,West,261,0.0,2.0,77,0.00,,,0.00,WUHU216DAVISVP2,2013-03-29 07:58:00,
2013-03-29 03:59:00,34.7,28.3,29.45,West,261,0.0,2.0,77,0.00,,,0.00,WUHU216DAVISVP2,2013-03-29 07:59:00,
2013-03-29 04:02:00,34.5,28.4,29.45,West,261,0.0,2.0,78,0.00,,,0.00,WUHU216DAVISVP2,2013-03-29 08:02:00,
2013-03-29 04:03:00,34.5,28.4,29.45,West,261,0.0,2.0,78,0.00,,,0.00,WUHU216DAVISVP2,2013-03-29 08:03:00,
2013-03-29 04:05:00,34.4,28.3,29.45,West,261,0.0,2.0,78,0.00,,,0.00,WUHU216DAVISVP2,2013-03-29 08:05:00,
2013-03-29 04:08:00,34.2,28.4,29.45,West,261,0.0,2.0,79,0.00,,,0.00,WUHU216DAVISVP2,2013-03-29 08:08:00,
2013-03-29 04:10:00,34.1,28.3,29.45,West,261,0.0,0.0,79,0.00,,,0.00,WUHU216DAVISVP2,2013-03-29 08:10:00,
2013-03-29 04:13:00,34.0,28.2,29.44,West,261,0.0,0.0,79,0.00,,,0.00,WUHU216DAVISVP2,2013-03-29 08:13:00,
2013-03-29 04:15:00,33.9,28.1,29.44,West,261,0.0,0.0,79,0.00,,,0.00,WUHU216DAVISVP2,2013-03-29 08:15:00,
2013-03-29 04:18:00,33.8,28.0,29.44,West,261,0.0,0.0,79,0.00,,,0.00,WUHU216DAVISVP2,2013-03-29 08:18:00,
2013-03-29 04:20:00,33.7,27.9,29.44,West,261,0.0,0.0,79,0.00,,,0.00,WUHU216DAVISVP2,2013-03-29 08:20:00,
2013-03-29 04:23:00,33.7,28.2,29.44,West,261,0.0,0.0,80,0.00,,,0.00,WUHU216DAVISVP2,2013-03-29 08:23:00,
2013-03-29 04:25:00,33.6,28.1,29.44,West,261,0.0,0.0,80,0.00,,,0.00,WUHU216DAVISVP2,2013-03-29 08:25:00,
2013-03-29 04:28:00,33.5,28.0,29.44,West,261,0.0,0.0,80,0.00,,,0.00,WUHU216DAVISVP2,2013-03-29 08:28:00,
2013-03-29 04:30:00,33.5,28.0,29.44,West,261,0.0,0.0,80,0.00,,,0.00,WUHU216DAVISVP2,2013-03-29 08:30:00,
2013-03-29 04:33:00,33.4,28.2,29.44,West,261,0.0,0.0,81,0.00,,,0.00,WUHU216DAVISVP2,2013-03-29 08:33:00,
2013-03-29 04:35:00,33.4,28.2,29.44,West,261,0.0,0.0,81,0.00,,,0.00,WUHU216DAVISVP2,2013-03-29 08:35:00,
2013-03-29 04:38:00,33.4,28.2,29.44,West,261,0.0,0.0,81,0.00,,,0.00,WUHU216DAVISVP2,2013-03-29 08:38:00,
2013-03-29 04:39:00,33.4,28.2,29.44,West,261,0.0,0.0,81,0.00,,,0.00,WUHU216DAVISVP2,2013-03-29 08:39:00,
2013-03-29 04:41:00,33.4,28.2,29.44,West,261,0.0,0.0,81,0.00,,,0.00,WUHU216DAVISVP2,2013-03-29 08:41:00,
2013-03-29 04:43:00,33.3,28.1,29.44,West,261,0.0,0.0,81,0.00,,,0.00,WUHU216DAVISVP2,2013-03-29 08:43:00,
2013-03-29 04:44:00,33.3,28.1,29.44,West,261,0.0,0.0,81,0.00,,,0.00,WUHU216DAVISVP2,2013-03-29 08:44:00,
2013-03-29 04:46:00,33.3,28.1,29.44,West,261,0.0,0.0,81,0.00,,,0.00,WUHU216DAVISVP2,2013-03-29 08:46:00,
2013-03-29 04:48:00,33.2,28.0,29.44,West,261,0.0,0.0,81,0.00,,,0.00,WUHU216DAVISVP2,2013-03-29 08:48:00,
2013-03-29 04:49:00,33.2,28.0,29.45,West,261,0.0,0.0,81,0.00,,,0.00,WUHU216DAVISVP2,2013-03-29 08:49:00,
2013-03-29 04:51:00,33.2,28.0,29.44,West,261,0.0,0.0,81,0.00,,,0.00,WUHU216DAVISVP2,2013-03-29 08:51:00,
2013-03-29 04:53:00,33.2,28.0,29.44,West,261,0.0,0.0,81,0.00,,,0.00,WUHU216DAVISVP2,2013-03-29 08:53:00,
2013-03-29 04:54:00,33.2,28.0,29.44,West,261,0.0,0.0,81,0.00,,,0.00,WUHU216DAVISVP2,2013-03-29 08:54:00,
2013-03-29 04:56:00,33.2,28.0,29.44,West,261,0.0,0.0,81,0.00,,,0.00,WUHU216DAVISVP2,2013-03-29 08:56:00,
2013-03-29 04:58:00,33.2,28.0,29.44,West,261,0.0,0.0,81,0.00,,,0.00,WUHU216DAVISVP2,2013-03-29 08:58:00,
2013-03-29 04:59:00,33.1,27.9,29.44,West,261,0.0,0.0,81,0.00,,,0.00,WUHU216DAVISVP2,2013-03-29 08:59:00,
2013-03-29 05:00:00,33.1,27.9,29.44,West,261,0.0,0.0,81,0.00,,,0.00,WUHU216DAVISVP2,2013-03-29 09:00:00,
2013-03-29 05:01:00,33.1,27.9,29.44,West,261,0.0,0.0,81,0.00,,,0.00,WUHU216DAVISVP2,2013-03-29 09:01:00,
2013-03-29 05:03:00,33.0,27.8,29.44,West,261,0.0,0.0,81,0.00,,,0.00,WUHU216DAVISVP2,2013-03-29 09:03:00,
2013-03-29 05:04:00,33.0,27.8,29.44,West,261,0.0,0.0,81,0.00,,,0.00,WUHU216DAVISVP2,2013-03-29 09:04:00,
2013-03-29 05:05:00,33.0,27.8,29.44,West,261,0.0,0.0,81,0.00,,,0.00,WUHU216DAVISVP2,2013-03-29 09:05:00,
2013-03-29 05:07:00,33.0,27.8,29.44,West,261,0.0,0.0,81,0.00,,,0.00,WUHU216DAVISVP2,2013-03-29 09:07:00,
2013-03-29 05:09:00,33.0,27.8,29.44,West,261,0.0,0.0,81,0.00,,,0.00,WUHU216DAVISVP2,2013-03-29 09:09:00,
2013-03-29 05:10:00,33.0,27.8,29.44,West,261,0.0,0.0,81,0.00,,,0.00,WUHU216DAVISVP2,2013-03-29 09:10:00,
2013-03-29 05:12:00,33.0,27.8,29.44,West,261,0.0,0.0,81,0.00,,,0.00,WUHU216DAVISVP2,2013-03-29 09:12:00,
2013-03-29 05:14:00,33.0,27.8,29.44,West,261,0.0,0.0,81,0.00,,,0.00,WUHU216DAVISVP2,2013-03-29 09:14:00,
2013-03-29 05:15:00,32.9,27.7,29.44,West,261,0.0,0.0,81,0.00,,,0.00,WUHU216DAVISVP2,2013-03-29 09:15:00,
2013-03-29 05:17:00,32.8,27.6,29.44,West,261,0.0,0.0,81,0.00,,,0.00,WUHU216DAVISVP2,2013-03-29 09:17:00,
2013-03-29 05:19:00,32.5,27.6,29.44,West,261,1.0,2.0,82,0.00,,,0.00,WUHU216DAVISVP2,2013-03-29 09:19:00,
2013-03-29 05:20:00,32.4,27.5,29.44,West,261,0.0,2.0,82,0.00,,,0.00,WUHU216DAVISVP2,2013-03-29 09:20:00,
2013-03-29 05:23:00,32.1,27.5,29.44,West,261,0.0,2.0,83,0.00,,,0.00,WUHU216DAVISVP2,2013-03-29 09:23:00,
2013-03-29 05:24:00,31.9,27.3,29.44,West,261,0.0,2.0,83,0.00,,,0.00,WUHU216DAVISVP2,2013-03-29 09:24:00,
2013-03-29 05:25:00,31.8,27.2,29.44,West,261,0.0,2.0,83,0.00,,,0.00,WUHU216DAVISVP2,2013-03-29 09:25:00,
2013-03-29 05:28:00,31.5,27.2,29.44,West,261,0.0,2.0,84,0.00,,,0.00,WUHU216DAVISVP2,2013-03-29 09:28:00,
2013-03-29 05:30:00,31.3,27.0,29.44,West,261,0.0,2.0,84,0.00,,,0.00,WUHU216DAVISVP2,2013-03-29 09:30:00,
2013-03-29 05:31:00,31.3,27.0,29.44,West,261,0.0,2.0,84,0.00,,,0.00,WUHU216DAVISVP2,2013-03-29 09:31:00,
2013-03-29 05:33:00,31.1,27.1,29.44,West,261,0.0,2.0,85,0.00,,,0.00,WUHU216DAVISVP2,2013-03-29 09:33:00,
2013-03-29 05:35:00,31.0,27.0,29.44,West,261,0.0,2.0,85,0.00,,,0.00,WUHU216DAVISVP2,2013-03-29 09:35:00,
2013-03-29 05:36:00,31.0,27.3,29.44,West,261,0.0,2.0,86,0.00,,,0.00,WUHU216DAVISVP2,2013-03-29 09:36:00,
2013-03-29 05:38:00,31.0,27.3,29.44,West,261,0.0,1.0,86,0.00,,,0.00,WUHU216DAVISVP2,2013-03-29 09:38:00,
2013-03-29 05:40:00,30.9,27.2,29.44,West,261,0.0,0.0,86,0.00,,,0.00,WUHU216DAVISVP2,2013-03-29 09:40:00,
2013-03-29 05:41:00,31.0,27.3,29.44,West,261,0.0,0.0,86,0.00,,,0.00,WUHU216DAVISVP2,2013-03-29 09:41:00,
2013-03-29 05:43:00,31.0,27.3,29.44,West,261,0.0,0.0,86,0.00,,,0.00,WUHU216DAVISVP2,2013-03-29 09:43:00,
2013-03-29 05:45:00,31.0,27.3,29.44,West,261,0.0,0.0,86,0.00,,,0.00,WUHU216DAVISVP2,2013-03-29 09:45:00,
2013-03-29 05:46:00,31.0,27.3,29.44,West,261,0.0,0.0,86,0.00,,,0.00,WUHU216DAVISVP2,2013-03-29 09:46:00,
2013-03-29 05:48:00,31.0,27.3,29.44,West,261,0.0,0.0,86,0.00,,,0.00,WUHU216DAVISVP2,2013-03-29 09:48:00,
2013-03-29 05:50:00,31.1,27.7,29.44,West,261,0.0,0.0,87,0.00,,,0.00,WUHU216DAVISVP2,2013-03-29 09:50:00,
2013-03-29 05:51:00,31.1,27.7,29.44,West,261,0.0,0.0,87,0.00,,,0.00,WUHU216DAVISVP2,2013-03-29 09:51:00,
2013-03-29 05:52:00,31.1,27.7,29.44,West,261,0.0,1.0,87,0.00,,,0.00,WUHU216DAVISVP2,2013-03-29 09:52:00,
2013-03-29 05:53:00,31.2,27.8,29.44,West,261,0.0,1.0,87,0.00,,,0.00,WUHU216DAVISVP2,2013-03-29 09:53:00,
2013-03-29 05:55:00,31.4,28.0,29.43,West,261,0.0,1.0,87,0.00,,,0.00,WUHU216DAVISVP2,2013-03-29 09:55:00,
2013-03-29 05:56:00,31.4,28.0,29.43,West,261,0.0,1.0,87,0.00,,,0.00,WUHU216DAVISVP2,2013-03-29 09:56:00,
2013-03-29 05:57:00,31.5,28.1,29.43,West,261,1.0,1.0,87,0.00,,,0.00,WUHU216DAVISVP2,2013-03-29 09:57:00,
2013-03-29 05:59:00,31.7,29.6,29.43,West,261,1.0,2.0,92,0.00,,,0.00,WUHU216DAVISVP2,2013-03-29 09:59:00,
2013-03-29 06:01:00,31.8,28.1,29.43,West,261,0.0,2.0,86,0.00,,,0.00,WUHU216DAVISVP2,2013-03-29 10:01:00,
2013-03-29 06:02:00,31.8,28.1,29.43,West,261,0.0,2.0,86,0.00,,,0.00,WUHU216DAVISVP2,2013-03-29 10:02:00,
2013-03-29 06:04:00,31.7,27.7,29.43,West,261,0.0,2.0,85,0.00,,,0.00,WUHU216DAVISVP2,2013-03-29 10:04:00,
2013-03-29 06:06:00,31.6,27.6,29.43,West,261,0.0,2.0,85,0.00,,,0.00,WUHU216DAVISVP2,2013-03-29 10:06:00,
2013-03-29 06:07:00,31.5,27.5,29.43,West,261,0.0,2.0,85,0.00,,,0.00,WUHU216DAVISVP2,2013-03-29 10:07:00,
2013-03-29 06:08:00,31.5,27.8,29.43,West,261,0.0,2.0,86,0.00,,,0.00,WUHU216DAVISVP2,2013-03-29 10:08:00,
2013-03-29 06:09:00,31.5,27.8,29.43,West,261,0.0,2.0,86,0.00,,,0.00,WUHU216DAVISVP2,2013-03-29 10:09:00,
2013-03-29 06:12:00,31.5,27.8,29.43,West,261,0.0,2.0,86,0.00,,,0.00,WUHU216DAVISVP2,2013-03-29 10:12:00,
2013-03-29 06:13:00,31.5,27.8,29.43,West,261,0.0,2.0,86,0.00,,,0.00,WUHU216DAVISVP2,2013-03-29 10:13:00,
2013-03-29 06:15:00,31.6,27.9,29.43,West,261,0.0,2.0,86,0.00,,,0.00,WUHU216DAVISVP2,2013-03-29 10:15:00,
2013-03-29 06:17:00,31.7,28.0,29.43,West,261,0.0,2.0,86,0.00,,,0.00,WUHU216DAVISVP2,2013-03-29 10:17:00,
2013-03-29 06:18:00,31.7,28.0,29.43,West,261,0.0,1.0,86,0.00,,,0.00,WUHU216DAVISVP2,2013-03-29 10:18:00,
2013-03-29 06:20:00,31.9,28.2,29.43,West,261,0.0,1.0,86,0.00,,,0.00,WUHU216DAVISVP2,2013-03-29 10:20:00,
2013-03-29 06:22:00,32.1,28.4,29.43,West,261,0.0,1.0,86,0.00,,,0.00,WUHU216DAVISVP2,2013-03-29 10:22:00,
2013-03-29 06:23:00,32.1,28.4,29.43,West,261,0.0,1.0,86,0.00,,,0.00,WUHU216DAVISVP2,2013-03-29 10:23:00,
2013-03-29 06:25:00,32.2,28.5,29.43,West,261,0.0,1.0,86,0.00,,,0.00,WUHU216DAVISVP2,2013-03-29 10:25:00,
2013-03-29 06:27:00,32.2,28.2,29.43,West,261,0.0,1.0,85,0.00,,,0.00,WUHU216DAVISVP2,2013-03-29 10:27:00,
2013-03-29 06:28:00,32.3,28.3,29.43,West,261,0.0,1.0,85,0.00,,,0.00,WUHU216DAVISVP2,2013-03-29 10:28:00,
2013-03-29 06:30:00,32.3,28.3,29.43,West,261,0.0,1.0,85,0.00,,,0.00,WUHU216DAVISVP2,2013-03-29 10:30:00,
2013-03-29 06:33:00,32.4,28.4,29.43,West,261,0.0,1.0,85,0.00,,,0.00,WUHU216DAVISVP2,2013-03-29 10:33:00,
2013-03-29 06:35:00,32.5,28.5,29.43,West,261,0.0,1.0,85,0.00,,,0.00,WUHU216DAVISVP2,2013-03-29 10:35:00,
2013-03-29 06:38:00,32.6,28.6,29.43,West,261,0.0,1.0,85,0.00,,,0.00,WUHU216DAVISVP2,2013-03-29 10:38:00,
2013-03-29 06:42:00,32.7,28.4,29.43,West,261,0.0,0.0,84,0.00,,,0.00,WUHU216DAVISVP2,2013-03-29 10:42:00,
2013-03-29 06:43:00,32.7,28.4,29.43,West,261,0.0,0.0,84,0.00,,,0.00,WUHU216DAVISVP2,2013-03-29 10:43:00,
2013-03-29 06:48:00,32.8,28.5,29.43,West,261,0.0,0.0,84,0.00,,,0.00,WUHU216DAVISVP2,2013-03-29 10:48:00,
2013-03-29 06:53:00,32.8,28.5,29.44,West,261,0.0,0.0,84,0.00,,,0.00,WUHU216DAVISVP2,2013-03-29 10:53:00,
2013-03-29 06:54:00,32.8,28.5,29.44,West,261,0.0,0.0,84,0.00,,,0.00,WUHU216DAVISVP2,2013-03-29 10:54:00,
2013-03-29 06:58:00,32.8,28.5,29.44,West,261,0.0,0.0,84,0.00,,,0.00,WUHU216DAVISVP2,2013-03-29 10:58:00,
2013-03-29 06:59:00,32.8,28.5,29.44,West,261,0.0,0.0,84,0.00,,,0.00,WUHU216DAVISVP2,2013-03-29 10:59:00,
2013-03-29 07:03:00,32.9,28.6,29.44,West,261,2.0,2.0,84,0.00,,,0.00,WUHU216DAVISVP2,2013-03-29 11:03:00,
2013-03-29 07:04:00,32.9,28.6,29.44,West,261,2.0,2.0,84,0.00,,,0.00,WUHU216DAVISVP2,2013-03-29 11:04:00,
2013-03-29 07:08:00,33.0,28.7,29.44,West,261,1.0,4.0,84,0.00,,,0.00,WUHU216DAVISVP2,2013-03-29 11:08:00,
2013-03-29 07:09:00,33.0,28.7,29.44,West,261,1.0,4.0,84,0.00,,,0.00,WUHU216DAVISVP2,2013-03-29 11:09:00,
2013-03-29 07:13:00,33.0,28.7,29.44,West,261,0.0,4.0,84,0.00,,,0.00,WUHU216DAVISVP2,2013-03-29 11:13:00,
2013-03-29 07:14:00,33.0,28.7,29.44,West,261,0.0,4.0,84,0.00,,,0.00,WUHU216DAVISVP2,2013-03-29 11:14:00,
2013-03-29 07:19:00,32.9,28.6,29.44,West,261,0.0,4.0,84,0.00,,,0.00,WUHU216DAVISVP2,2013-03-29 11:19:00,
2013-03-29 07:24:00,32.8,28.5,29.44,West,261,0.0,2.0,84,0.00,,,0.00,WUHU216DAVISVP2,2013-03-29 11:24:00,
2013-03-29 07:29:00,32.8,28.5,29.44,West,261,0.0,0.0,84,0.00,,,0.00,WUHU216DAVISVP2,2013-03-29 11:29:00,
2013-03-29 07:30:00,32.8,28.5,29.44,West,261,0.0,0.0,84,0.00,,,0.00,WUHU216DAVISVP2,2013-03-29 11:30:00,
2013-03-29 07:34:00,32.7,28.4,29.44,West,261,0.0,0.0,84,0.00,,,0.00,WUHU216DAVISVP2,2013-03-29 11:34:00,
2013-03-29 07:35:00,32.7,28.4,29.44,West,261,0.0,0.0,84,0.00,,,0.00,WUHU216DAVISVP2,2013-03-29 11:35:00,
2013-03-29 07:39:00,32.7,28.4,29.44,West,261,0.0,0.0,84,0.00,,,0.00,WUHU216DAVISVP2,2013-03-29 11:39:00,
2013-03-29 07:40:00,32.7,28.4,29.44,West,261,0.0,0.0,84,0.00,,,0.00,WUHU216DAVISVP2,2013-03-29 11:40:00,
2013-03-29 07:44:00,32.6,28.6,29.45,West,261,0.0,0.0,85,0.00,,,0.00,WUHU216DAVISVP2,2013-03-29 11:44:00,
2013-03-29 07:45:00,32.6,28.6,29.45,West,261,0.0,0.0,85,0.00,,,0.00,WUHU216DAVISVP2,2013-03-29 11:45:00,
2013-03-29 07:49:00,32.6,28.6,29.45,West,261,0.0,1.0,85,0.00,,,0.00,WUHU216DAVISVP2,2013-03-29 11:49:00,
2013-03-29 07:50:00,32.6,28.6,29.45,West,261,0.0,1.0,85,0.00,,,0.00,WUHU216DAVISVP2,2013-03-29 11:50:00,
2013-03-29 07:54:00,32.8,28.8,29.45,West,261,0.0,1.0,85,0.00,,,0.00,WUHU216DAVISVP2,2013-03-29 11:54:00,
2013-03-29 07:55:00,32.8,28.8,29.45,West,261,0.0,1.0,85,0.00,,,0.00,WUHU216DAVISVP2,2013-03-29 11:55:00,
2013-03-29 07:59:00,32.7,28.7,29.45,West,261,0.0,1.0,85,0.00,,,0.00,WUHU216DAVISVP2,2013-03-29 11:59:00,
2013-03-29 08:00:00,32.7,28.7,29.45,West,261,0.0,1.0,85,0.00,,,0.00,WUHU216DAVISVP2,2013-03-29 12:00:00,
2013-03-29 08:05:00,32.8,28.8,29.45,West,261,0.0,1.0,85,0.00,,,0.00,WUHU216DAVISVP2,2013-03-29 12:05:00,
2013-03-29 08:06:00,32.8,28.8,29.45,West,261,0.0,1.0,85,0.00,,,0.00,WUHU216DAVISVP2,2013-03-29 12:06:00,
2013-03-29 08:10:00,32.8,28.8,29.45,West,261,0.0,1.0,85,0.00,,,0.00,WUHU216DAVISVP2,2013-03-29 12:10:00,
2013-03-29 08:11:00,32.8,28.8,29.45,West,261,0.0,1.0,85,0.00,,,0.00,WUHU216DAVISVP2,2013-03-29 12:11:00,
2013-03-29 08:15:00,32.8,28.8,29.45,West,261,0.0,2.0,85,0.00,,,0.00,WUHU216DAVISVP2,2013-03-29 12:15:00,
2013-03-29 08:16:00,32.8,28.8,29.45,West,261,0.0,2.0,85,0.00,,,0.00,WUHU216DAVISVP2,2013-03-29 12:16:00,
2013-03-29 08:20:00,32.8,28.8,29.45,West,261,0.0,2.0,85,0.00,,,0.00,WUHU216DAVISVP2,2013-03-29 12:20:00,
2013-03-29 08:21:00,32.8,28.5,29.45,West,261,1.0,2.0,84,0.00,,,0.00,WUHU216DAVISVP2,2013-03-29 12:21:00,
2013-03-29 08:22:00,32.8,28.5,29.45,West,261,0.0,2.0,84,0.00,,,0.00,WUHU216DAVISVP2,2013-03-29 12:22:00,
2013-03-29 08:25:00,32.8,28.8,29.45,West,261,0.0,2.0,85,0.00,,,0.00,WUHU216DAVISVP2,2013-03-29 12:25:00,
2013-03-29 08:26:00,32.8,28.8,29.45,West,261,0.0,2.0,85,0.00,,,0.00,WUHU216DAVISVP2,2013-03-29 12:26:00,
2013-03-29 08:27:00,32.8,28.8,29.45,West,261,0.0,2.0,85,0.00,,,0.00,WUHU216DAVISVP2,2013-03-29 12:27:00,
2013-03-29 08:30:00,32.9,28.9,29.45,West,261,1.0,2.0,85,0.00,,,0.00,WUHU216DAVISVP2,2013-03-29 12:30:00,
2013-03-29 08:31:00,33.0,29.0,29.46,West,261,0.0,2.0,85,0.00,,,0.00,WUHU216DAVISVP2,2013-03-29 12:31:00,
2013-03-29 08:32:00,33.0,29.0,29.46,West,261,0.0,2.0,85,0.00,,,0.00,WUHU216DAVISVP2,2013-03-29 12:32:00,
2013-03-29 08:35:00,33.1,29.1,29.46,West,261,0.0,2.0,85,0.00,,,0.00,WUHU216DAVISVP2,2013-03-29 12:35:00,
2013-03-29 08:36:00,33.1,29.1,29.45,West,261,1.0,2.0,85,0.00,,,0.00,WUHU216DAVISVP2,2013-03-29 12:36:00,
2013-03-29 08:37:00,33.2,29.2,29.45,West,261,0.0,2.0,85,0.00,,,0.00,WUHU216DAVISVP2,2013-03-29 12:37:00,
2013-03-29 08:40:00,33.3,29.3,29.46,West,261,0.0,2.0,85,0.00,,,0.00,WUHU216DAVISVP2,2013-03-29 12:40:00,
2013-03-29 08:42:00,33.3,29.3,29.45,West,261,0.0,2.0,85,0.00,,,0.00,WUHU216DAVISVP2,2013-03-29 12:42:00,
2013-03-29 08:45:00,33.5,29.5,29.45,West,261,0.0,2.0,85,0.00,,,0.00,WUHU216DAVISVP2,2013-03-29 12:45:00,
2013-03-29 08:47:00,33.7,29.6,29.45,West,261,0.0,2.0,85,0.00,,,0.00,WUHU216DAVISVP2,2013-03-29 12:47:00,
2013-03-29 08:50:00,34.0,29.9,29.46,West,261,0.0,1.0,85,0.00,,,0.00,WUHU216DAVISVP2,2013-03-29 12:50:00,
2013-03-29 08:52:00,34.1,30.0,29.46,West,261,0.0,1.0,85,0.00,,,0.00,WUHU216DAVISVP2,2013-03-29 12:52:00,
2013-03-29 08:53:00,34.2,29.9,29.46,West,261,0.0,1.0,84,0.00,,,0.00,WUHU216DAVISVP2,2013-03-29 12:53:00,
2013-03-29 08:56:00,34.3,30.0,29.46,West,261,0.0,1.0,84,0.00,,,0.00,WUHU216DAVISVP2,2013-03-29 12:56:00,
2013-03-29 08:58:00,34.4,30.0,29.46,West,261,0.0,0.0,84,0.00,,,0.00,WUHU216DAVISVP2,2013-03-29 12:58:00,
2013-03-29 09:01:00,34.5,30.1,29.46,West,261,0.0,0.0,84,0.00,,,0.00,WUHU216DAVISVP2,2013-03-29 13:01:00,
2013-03-29 09:03:00,34.7,30.3,29.46,West,261,0.0,0.0,84,0.00,,,0.00,WUHU216DAVISVP2,2013-03-29 13:03:00,
2013-03-29 09:06:00,35.1,30.4,29.46,West,261,0.0,0.0,83,0.00,,,0.00,WUHU216DAVISVP2,2013-03-29 13:06:00,
2013-03-29 09:08:00,35.2,30.5,29.46,West,261,0.0,0.0,83,0.00,,,0.00,WUHU216DAVISVP2,2013-03-29 13:08:00,
2013-03-29 09:11:00,35.7,31.0,29.46,West,261,0.0,0.0,83,0.00,,,0.00,WUHU216DAVISVP2,2013-03-29 13:11:00,
2013-03-29 09:13:00,36.1,31.4,29.46,West,261,0.0,0.0,83,0.00,,,0.00,WUHU216DAVISVP2,2013-03-29 13:13:00,
2013-03-29 09:17:00,37.0,31.7,29.46,West,261,0.0,0.0,81,0.00,,,0.00,WUHU216DAVISVP2,2013-03-29 13:17:00,
2013-03-29 09:18:00,37.4,31.8,29.46,West,261,0.0,0.0,80,0.00,,,0.00,WUHU216DAVISVP2,2013-03-29 13:18:00,
2013-03-29 09:19:00,37.5,31.9,29.47,West,261,0.0,0.0,80,0.00,,,0.00,WUHU216DAVISVP2,2013-03-29 13:19:00,
2013-03-29 09:22:00,38.0,32.1,29.47,West,261,0.0,0.0,79,0.00,,,0.00,WUHU216DAVISVP2,2013-03-29 13:22:00,
2013-03-29 09:23:00,38.3,32.1,29.47,West,261,0.0,1.0,78,0.00,,,0.00,WUHU216DAVISVP2,2013-03-29 13:23:00,
2013-03-29 09:24:00,38.3,32.1,29.47,West,261,1.0,1.0,78,0.00,,,0.00,WUHU216DAVISVP2,2013-03-29 13:24:00,
2013-03-29 09:27:00,38.7,32.1,29.47,West,261,0.0,1.0,77,0.00,,,0.00,WUHU216DAVISVP2,2013-03-29 13:27:00,
2013-03-29 09:28:00,38.8,31.9,29.47,West,261,0.0,1.0,76,0.00,,,0.00,WUHU216DAVISVP2,2013-03-29 13:28:00,
2013-03-29 09:29:00,38.8,31.9,29.47,West,261,0.0,1.0,76,0.00,,,0.00,WUHU216DAVISVP2,2013-03-29 13:29:00,
2013-03-29 09:32:00,38.7,31.8,29.47,West,261,0.0,1.0,76,0.00,,,0.00,WUHU216DAVISVP2,2013-03-29 13:32:00,
2013-03-29 09:33:00,38.7,31.8,29.47,West,261,0.0,1.0,76,0.00,,,0.00,WUHU216DAVISVP2,2013-03-29 13:33:00,
2013-03-29 09:34:00,38.6,31.4,29.47,West,261,0.0,1.0,75,0.00,,,0.00,WUHU216DAVISVP2,2013-03-29 13:34:00,
2013-03-29 09:37:00,38.7,31.5,29.47,West,261,0.0,1.0,75,0.00,,,0.00,WUHU216DAVISVP2,2013-03-29 13:37:00,
2013-03-29 09:38:00,38.6,31.4,29.47,West,261,1.0,2.0,75,0.00,,,0.00,WUHU216DAVISVP2,2013-03-29 13:38:00,
2013-03-29 09:39:00,38.6,31.4,29.47,West,261,1.0,2.0,75,0.00,,,0.00,WUHU216DAVISVP2,2013-03-29 13:39:00,
2013-03-29 09:40:00,38.6,31.4,29.47,West,261,0.0,2.0,75,0.00,,,0.00,WUHU216DAVISVP2,2013-03-29 13:40:00,
2013-03-29 09:43:00,38.7,31.5,29.47,West,261,0.0,2.0,75,0.00,,,0.00,WUHU216DAVISVP2,2013-03-29 13:43:00,
2013-03-29 09:44:00,38.8,31.6,29.47,West,261,0.0,2.0,75,0.00,,,0.00,WUHU216DAVISVP2,2013-03-29 13:44:00,
2013-03-29 09:45:00,38.9,31.7,29.47,West,261,0.0,2.0,75,0.00,,,0.00,WUHU216DAVISVP2,2013-03-29 13:45:00,
2013-03-29 09:48:00,38.9,32.0,29.47,West,261,0.0,2.0,76,0.00,,,0.00,WUHU216DAVISVP2,2013-03-29 13:48:00,
2013-03-29 09:49:00,38.9,31.7,29.47,West,261,0.0,2.0,75,0.00,,,0.00,WUHU216DAVISVP2,2013-03-29 13:49:00,
2013-03-29 09:50:00,38.9,31.7,29.47,West,261,0.0,2.0,75,0.00,,,0.00,WUHU216DAVISVP2,2013-03-29 13:50:00,
2013-03-29 09:53:00,38.8,31.3,29.47,West,261,1.0,2.0,74,0.00,,,0.00,WUHU216DAVISVP2,2013-03-29 13:53:00,
2013-03-29 09:54:00,38.8,31.3,29.47,West,261,0.0,2.0,74,0.00,,,0.00,WUHU216DAVISVP2,2013-03-29 13:54:00,
2013-03-29 09:55:00,38.8,31.3,29.47,West,261,0.0,2.0,74,0.00,,,0.00,WUHU216DAVISVP2,2013-03-29 13:55:00,
2013-03-29 09:58:00,38.9,31.6,29.47,West,261,0.0,2.0,75,0.00,,,0.00,WUHU216DAVISVP2,2013-03-29 13:58:00,
2013-03-29 09:59:00,38.9,31.6,29.47,West,261,0.0,2.0,75,0.00,,,0.00,WUHU216DAVISVP2,2013-03-29 13:59:00,
2013-03-29 10:00:00,38.9,31.6,29.47,West,261,0.0,2.0,75,0.00,,,0.00,WUHU216DAVISVP2,2013-03-29 14:00:00,
2013-03-29 10:01:00,39.0,31.7,29.47,West,261,4.0,5.0,75,0.00,,,0.00,WUHU216DAVISVP2,2013-03-29 14:01:00,
2013-03-29 10:04:00,39.1,31.2,29.47,West,261,1.0,5.0,73,0.00,,,0.00,WUHU216DAVISVP2,2013-03-29 14:04:00,
2013-03-29 10:05:00,39.1,30.8,29.47,West,261,3.0,5.0,72,0.00,,,0.00,WUHU216DAVISVP2,2013-03-29 14:05:00,
2013-03-29 10:06:00,39.2,30.9,29.47,West,261,1.0,5.0,72,0.00,,,0.00,WUHU216DAVISVP2,2013-03-29 14:06:00,
2013-03-29 10:09:00,39.3,30.7,29.47,West,261,1.0,5.0,71,0.00,,,0.00,WUHU216DAVISVP2,2013-03-29 14:09:00,
2013-03-29 10:10:00,39.4,30.8,29.47,West,261,2.0,5.0,71,0.00,,,0.00,WUHU216DAVISVP2,2013-03-29 14:10:00,
2013-03-29 10:11:00,39.5,30.9,29.47,West,261,2.0,5.0,71,0.00,,,0.00,WUHU216DAVISVP2,2013-03-29 14:11:00,
2013-03-29 10:14:00,39.9,30.9,29.47,West,261,0.0,5.0,70,0.00,,,0.00,WUHU216DAVISVP2,2013-03-29 14:14:00,
2013-03-29 10:15:00,40.0,31.0,29.47,West,261,0.0,5.0,70,0.00,,,0.00,WUHU216DAVISVP2,2013-03-29 14:15:00,
2013-03-29 10:16:00,40.1,31.1,29.47,West,261,2.0,5.0,70,0.00,,,0.00,WUHU216DAVISVP2,2013-03-29 14:16:00,
2013-03-29 10:19:00,40.5,30.4,29.47,West,261,0.0,5.0,67,0.00,,,0.00,WUHU216DAVISVP2,2013-03-29 14:19:00,
2013-03-29 10:20:00,40.6,30.5,29.47,West,261,0.0,4.0,67,0.00,,,0.00,WUHU216DAVISVP2,2013-03-29 14:20:00,
2013-03-29 10:21:00,40.7,30.6,29.47,West,261,1.0,4.0,67,0.00,,,0.00,WUHU216DAVISVP2,2013-03-29 14:21:00,
2013-03-29 10:24:00,40.9,30.4,29.47,West,261,1.0,4.0,66,0.00,,,0.00,WUHU216DAVISVP2,2013-03-29 14:24:00,
2013-03-29 10:25:00,40.9,30.4,29.47,West,261,1.0,4.0,66,0.00,,,0.00,WUHU216DAVISVP2,2013-03-29 14:25:00,
2013-03-29 10:27:00,41.1,30.6,29.47,West,261,4.0,4.0,66,0.00,,,0.00,WUHU216DAVISVP2,2013-03-29 14:27:00,
2013-03-29 10:29:00,41.2,29.9,29.47,West,261,1.0,5.0,64,0.00,,,0.00,WUHU216DAVISVP2,2013-03-29 14:29:00,
2013-03-29 10:30:00,41.2,29.6,29.47,North,354,4.0,5.0,63,0.00,,,0.00,WUHU216DAVISVP2,2013-03-29 14:30:00,
2013-03-29 10:33:00,41.3,29.7,29.47,North,4,1.0,6.0,63,0.00,,,0.00,WUHU216DAVISVP2,2013-03-29 14:33:00,
2013-03-29 10:34:00,41.3,29.3,29.47,North,4,1.0,6.0,62,0.00,,,0.00,WUHU216DAVISVP2,2013-03-29 14:34:00,
2013-03-29 10:35:00,41.3,29.3,29.47,North,4,1.0,6.0,62,0.00,,,0.00,WUHU216DAVISVP2,2013-03-29 14:35:00,
2013-03-29 10:37:00,41.4,29.4,29.47,North,8,0.0,6.0,62,0.00,,,0.00,WUHU216DAVISVP2,2013-03-29 14:37:00,
2013-03-29 10:39:00,41.6,30.4,29.47,North,4,2.0,6.0,64,0.00,,,0.00,WUHU216DAVISVP2,2013-03-29 14:39:00,
2013-03-29 10:40:00,41.6,30.4,29.47,North,4,3.0,6.0,64,0.00,,,0.00,WUHU216DAVISVP2,2013-03-29 14:40:00,
2013-03-29 10:41:00,41.8,30.2,29.47,NNE,13,7.0,7.0,63,0.00,,,0.00,WUHU216DAVISVP2,2013-03-29 14:41:00,
2013-03-29 10:43:00,41.9,29.1,29.47,NNE,33,4.0,7.0,60,0.00,,,0.00,WUHU216DAVISVP2,2013-03-29 14:43:00,
2013-03-29 10:44:00,41.9,29.1,29.47,NNE,33,3.0,7.0,60,0.00,,,0.00,WUHU216DAVISVP2,2013-03-29 14:44:00,
2013-03-29 10:45:00,42.0,29.2,29.47,NNE,33,2.0,7.0,60,0.00,,,0.00,WUHU216DAVISVP2,2013-03-29 14:45:00,
2013-03-29 10:46:00,42.0,28.8,29.47,NNE,33,0.0,7.0,59,0.00,,,0.00,WUHU216DAVISVP2,2013-03-29 14:46:00,
2013-03-29 10:48:00,42.1,29.3,29.47,NE,34,5.0,7.0,60,0.00,,,0.00,WUHU216DAVISVP2,2013-03-29 14:48:00,
2013-03-29 10:50:00,42.1,28.4,29.47,NE,34,4.0,7.0,58,0.00,,,0.00,WUHU216DAVISVP2,2013-03-29 14:50:00,
2013-03-29 10:51:00,42.2,29.0,29.47,NE,34,5.0,7.0,59,0.00,,,0.00,WUHU216DAVISVP2,2013-03-29 14:51:00,
2013-03-29 10:53:00,42.3,28.6,29.47,NE,35,2.0,7.0,58,0.00,,,0.00,WUHU216DAVISVP2,2013-03-29 14:53:00,
2013-03-29 10:55:00,42.3,28.6,29.47,NE,35,5.0,7.0,58,0.00,,,0.00,WUHU216DAVISVP2,2013-03-29 14:55:00,
2013-03-29 10:57:00,42.4,28.7,29.47,NE,35,5.0,7.0,58,0.00,,,0.00,WUHU216DAVISVP2,2013-03-29 14:57:00,
2013-03-29 10:58:00,42.3,28.6,29.47,NE,35,5.0,7.0,58,0.00,,,0.00,WUHU216DAVISVP2,2013-03-29 14:58:00,
2013-03-29 11:00:00,42.3,28.2,29.47,NE,35,5.0,7.0,57,0.00,,,0.00,WUHU216DAVISVP2,2013-03-29 15:00:00,
2013-03-29 11:02:00,42.2,29.0,29.47,NE,35,1.0,7.0,59,0.00,,,0.00,WUHU216DAVISVP2,2013-03-29 15:02:00,
2013-03-29 11:03:00,42.2,29.4,29.47,North,4,5.0,7.0,60,0.00,,,0.00,WUHU216DAVISVP2,2013-03-29 15:03:00,
2013-03-29 11:05:00,42.3,29.5,29.47,North,9,3.0,7.0,60,0.00,,,0.00,WUHU216DAVISVP2,2013-03-29 15:05:00,
2013-03-29 11:07:00,42.3,29.0,29.47,North,8,4.0,6.0,59,0.00,,,0.00,WUHU216DAVISVP2,2013-03-29 15:07:00,
2013-03-29 11:08:00,42.3,29.0,29.47,North,11,5.0,6.0,59,0.00,,,0.00,WUHU216DAVISVP2,2013-03-29 15:08:00,
2013-03-29 11:10:00,42.3,28.6,29.47,North,11,2.0,6.0,58,0.00,,,0.00,WUHU216DAVISVP2,2013-03-29 15:10:00,
2013-03-29 11:12:00,42.3,29.0,29.47,North,10,4.0,6.0,59,0.00,,,0.00,WUHU216DAVISVP2,2013-03-29 15:12:00,
2013-03-29 11:13:00,42.2,29.0,29.47,North,10,3.0,6.0,59,0.00,,,0.00,WUHU216DAVISVP2,2013-03-29 15:13:00,
2013-03-29 11:15:00,42.2,29.4,29.47,North,10,4.0,6.0,60,0.00,,,0.00,WUHU216DAVISVP2,2013-03-29 15:15:00,
2013-03-29 11:18:00,42.2,29.0,29.47,North,9,4.0,7.0,59,0.00,,,0.00,WUHU216DAVISVP2,2013-03-29 15:18:00,
2013-03-29 11:20:00,42.3,29.0,29.48,NNE,15,6.0,7.0,59,0.00,,,0.00,WUHU216DAVISVP2,2013-03-29 15:20:00,
2013-03-29 11:23:00,42.4,28.7,29.48,NNE,15,5.0,7.0,58,0.00,,,0.00,WUHU216DAVISVP2,2013-03-29 15:23:00,
2013-03-29 11:25:00,42.4,28.3,29.48,NNE,15,4.0,7.0,57,0.00,,,0.00,WUHU216DAVISVP2,2013-03-29 15:25:00,
2013-03-29 11:27:00,42.4,28.7,29.48,NNE,15,6.0,7.0,58,0.00,,,0.00,WUHU216DAVISVP2,2013-03-29 15:27:00,
2013-03-29 11:28:00,42.5,30.1,29.48,NNE,15,4.0,7.0,61,0.00,,,0.00,WUHU216DAVISVP2,2013-03-29 15:28:00,
2013-03-29 11:30:00,42.6,28.0,29.48,NNE,15,1.0,7.0,56,0.00,,,0.00,WUHU216DAVISVP2,2013-03-29 15:30:00,
2013-03-29 11:32:00,42.7,27.7,29.47,NNE,15,0.0,7.0,55,0.00,,,0.00,WUHU216DAVISVP2,2013-03-29 15:32:00,
2013-03-29 11:33:00,42.9,27.9,29.47,NNE,15,4.0,7.0,55,0.00,,,0.00,WUHU216DAVISVP2,2013-03-29 15:33:00,
2013-03-29 11:34:00,43.0,28.4,29.47,NNE,15,5.0,7.0,56,0.00,,,0.00,WUHU216DAVISVP2,2013-03-29 15:34:00,
2013-03-29 11:37:00,43.5,29.3,29.47,NNE,15,1.0,7.0,57,0.00,,,0.00,WUHU216DAVISVP2,2013-03-29 15:37:00,
2013-03-29 11:38:00,43.8,29.2,29.47,NNE,15,3.0,7.0,56,0.00,,,0.00,WUHU216DAVISVP2,2013-03-29 15:38:00,
2013-03-29 11:39:00,43.8,29.2,29.47,NNE,15,4.0,7.0,56,0.00,,,0.00,WUHU216DAVISVP2,2013-03-29 15:39:00,
2013-03-29 11:42:00,43.8,29.2,29.47,NNE,15,0.0,7.0,56,0.00,,,0.00,WUHU216DAVISVP2,2013-03-29 15:42:00,
2013-03-29 11:43:00,43.8,28.7,29.47,NNE,15,0.0,7.0,55,0.00,,,0.00,WUHU216DAVISVP2,2013-03-29 15:43:00,
2013-03-29 11:44:00,43.8,28.7,29.47,NNE,15,0.0,7.0,55,0.00,,,0.00,WUHU216DAVISVP2,2013-03-29 15:44:00,
2013-03-29 11:47:00,43.9,28.8,29.47,NNE,15,4.0,6.0,55,0.00,,,0.00,WUHU216DAVISVP2,2013-03-29 15:47:00,
2013-03-29 11:48:00,43.9,28.8,29.47,NNE,15,2.0,6.0,55,0.00,,,0.00,WUHU216DAVISVP2,2013-03-29 15:48:00,
2013-03-29 11:49:00,43.9,28.8,29.47,NNE,15,1.0,6.0,55,0.00,,,0.00,WUHU216DAVISVP2,2013-03-29 15:49:00,
2013-03-29 11:53:00,44.2,29.1,29.47,NNE,15,1.0,5.0,55,0.00,,,0.00,WUHU216DAVISVP2,2013-03-29 15:53:00,
2013-03-29 11:54:00,44.3,29.2,29.47,NNE,15,0.0,5.0,55,0.00,,,0.00,WUHU216DAVISVP2,2013-03-29 15:54:00,
2013-03-29 11:58:00,44.9,29.3,29.47,NNE,15,2.0,5.0,54,0.00,,,0.00,WUHU216DAVISVP2,2013-03-29 15:58:00,
2013-03-29 11:59:00,45.0,28.9,29.47,NNE,15,0.0,5.0,53,0.00,,,0.00,WUHU216DAVISVP2,2013-03-29 15:59:00,
2013-03-29 12:00:00,45.2,29.6,29.47,NNE,15,2.0,5.0,54,0.00,,,0.00,WUHU216DAVISVP2,2013-03-29 16:00:00,
2013-03-29 12:03:00,45.5,29.4,29.47,NNE,15,1.0,5.0,53,0.00,,,0.00,WUHU216DAVISVP2,2013-03-29 16:03:00,
2013-03-29 12:04:00,45.6,29.5,29.47,NNE,15,1.0,5.0,53,0.00,,,0.00,WUHU216DAVISVP2,2013-03-29 16:04:00,
2013-03-29 12:05:00,45.9,29.7,29.47,NNE,15,0.0,5.0,53,0.00,,,0.00,WUHU216DAVISVP2,2013-03-29 16:05:00,
2013-03-29 12:08:00,46.2,29.5,29.47,NNE,15,0.0,4.0,52,0.00,,,0.00,WUHU216DAVISVP2,2013-03-29 16:08:00,
2013-03-29 12:09:00,46.2,29.5,29.47,NNE,15,2.0,4.0,52,0.00,,,0.00,WUHU216DAVISVP2,2013-03-29 16:09:00,
2013-03-29 12:10:00,46.2,29.5,29.47,NNE,15,1.0,4.0,52,0.00,,,0.00,WUHU216DAVISVP2,2013-03-29 16:10:00,
2013-03-29 12:13:00,46.1,29.4,29.47,NNE,15,0.0,4.0,52,0.00,,,0.00,WUHU216DAVISVP2,2013-03-29 16:13:00,
2013-03-29 12:14:00,46.1,29.9,29.47,NNE,15,0.0,4.0,53,0.00,,,0.00,WUHU216DAVISVP2,2013-03-29 16:14:00,
2013-03-29 12:15:00,46.2,30.0,29.47,NNE,15,0.0,4.0,53,0.00,,,0.00,WUHU216DAVISVP2,2013-03-29 16:15:00,
2013-03-29 12:18:00,46.4,29.7,29.47,WNW,295,1.0,6.0,52,0.00,,,0.00,WUHU216DAVISVP2,2013-03-29 16:18:00,
2013-03-29 12:19:00,46.3,29.6,29.47,WNW,295,5.0,6.0,52,0.00,,,0.00,WUHU216DAVISVP2,2013-03-29 16:19:00,
2013-03-29 12:20:00,46.2,30.0,29.47,WNW,295,2.0,6.0,53,0.00,,,0.00,WUHU216DAVISVP2,2013-03-29 16:20:00,
2013-03-29 12:23:00,45.9,28.8,29.47,NNW,342,6.0,8.0,51,0.00,,,0.00,WUHU216DAVISVP2,2013-03-29 16:23:00,
2013-03-29 12:24:00,45.6,28.5,29.47,NW,322,4.0,8.0,51,0.00,,,0.00,WUHU216DAVISVP2,2013-03-29 16:24:00,
2013-03-29 12:25:00,45.5,28.4,29.47,NW,312,4.0,8.0,51,0.00,,,0.00,WUHU216DAVISVP2,2013-03-29 16:25:00,
2013-03-29 12:28:00,45.4,29.3,29.47,WNW,297,0.0,8.0,53,0.00,,,0.00,WUHU216DAVISVP2,2013-03-29 16:28:00,
2013-03-29 12:29:00,45.4,29.7,29.47,WNW,295,4.0,8.0,54,0.00,,,0.00,WUHU216DAVISVP2,2013-03-29 16:29:00,
2013-03-29 12:30:00,45.5,29.8,29.47,WNW,295,3.0,8.0,54,0.00,,,0.00,WUHU216DAVISVP2,2013-03-29 16:30:00,
2013-03-29 12:31:00,45.5,29.4,29.47,WNW,295,0.0,8.0,53,0.00,,,0.00,WUHU216DAVISVP2,2013-03-29 16:31:00,
2013-03-29 12:33:00,45.5,29.8,29.47,NNW,344,5.0,8.0,54,0.00,,,0.00,WUHU216DAVISVP2,2013-03-29 16:33:00,
2013-03-29 12:35:00,45.5,29.4,29.46,NNW,345,2.0,8.0,53,0.00,,,0.00,WUHU216DAVISVP2,2013-03-29 16:35:00,
2013-03-29 12:36:00,45.5,29.8,29.46,ENE,64,2.0,8.0,54,0.00,,,0.00,WUHU216DAVISVP2,2013-03-29 16:36:00,
2013-03-29 12:38:00,45.7,29.5,29.46,WNW,293,4.0,8.0,53,0.00,,,0.00,WUHU216DAVISVP2,2013-03-29 16:38:00,
2013-03-29 12:40:00,45.7,30.0,29.46,WNW,297,3.0,8.0,54,0.00,,,0.00,WUHU216DAVISVP2,2013-03-29 16:40:00,
2013-03-29 12:41:00,45.6,29.5,29.46,NW,326,4.0,8.0,53,0.00,,,0.00,WUHU216DAVISVP2,2013-03-29 16:41:00,
2013-03-29 12:43:00,45.5,28.9,29.46,NNE,22,9.0,9.0,52,0.00,,,0.00,WUHU216DAVISVP2,2013-03-29 16:43:00,
2013-03-29 12:45:00,45.4,28.8,29.46,NNW,345,5.0,9.0,52,0.00,,,0.00,WUHU216DAVISVP2,2013-03-29 16:45:00,
2013-03-29 12:46:00,45.4,29.3,29.46,NW,314,5.0,9.0,53,0.00,,,0.00,WUHU216DAVISVP2,2013-03-29 16:46:00,
2013-03-29 12:47:00,45.4,29.3,29.46,NW,310,7.0,9.0,53,0.00,,,0.00,WUHU216DAVISVP2,2013-03-29 16:47:00,
2013-03-29 12:49:00,45.2,28.6,29.46,NW,309,4.0,9.0,52,0.00,,,0.00,WUHU216DAVISVP2,2013-03-29 16:49:00,
2013-03-29 12:50:00,45.1,28.5,29.46,NNW,341,8.0,9.0,52,0.00,,,0.00,WUHU216DAVISVP2,2013-03-29 16:50:00,
2013-03-29 12:52:00,45.2,29.1,29.46,NW,320,5.0,9.0,53,0.00,,,0.00,WUHU216DAVISVP2,2013-03-29 16:52:00,
2013-03-29 12:54:00,45.3,29.2,29.46,NNW,337,5.0,9.0,53,0.00,,,0.00,WUHU216DAVISVP2,2013-03-29 16:54:00,
2013-03-29 12:55:00,45.3,29.2,29.46,NNW,340,4.0,9.0,53,0.00,,,0.00,WUHU216DAVISVP2,2013-03-29 16:55:00,
2013-03-29 12:57:00,45.5,29.8,29.46,NE,39,5.0,9.0,54,0.00,,,0.00,WUHU216DAVISVP2,2013-03-29 16:57:00,
2013-03-29 12:59:00,45.7,30.0,29.46,North,354,6.0,10.0,54,0.00,,,0.00,WUHU216DAVISVP2,2013-03-29 16:59:00,
2013-03-29 13:00:00,45.6,29.5,29.46,North,354,2.0,10.0,53,0.00,,,0.00,WUHU216DAVISVP2,2013-03-29 17:00:00,
2013-03-29 13:02:00,45.7,29.5,29.45,North,354,5.0,10.0,53,0.00,,,0.00,WUHU216DAVISVP2,2013-03-29 17:02:00,
2013-03-29 13:04:00,45.7,29.5,29.45,ENE,76,2.0,10.0,53,0.00,,,0.00,WUHU216DAVISVP2,2013-03-29 17:04:00,
2013-03-29 13:07:00,45.9,28.3,29.45,North,4,8.0,10.0,50,0.00,,,0.00,WUHU216DAVISVP2,2013-03-29 17:07:00,
2013-03-29 13:09:00,45.8,28.2,29.45,NNW,341,6.0,10.0,50,0.00,,,0.00,WUHU216DAVISVP2,2013-03-29 17:09:00,
2013-03-29 13:12:00,45.7,27.1,29.45,NW,314,4.0,10.0,48,0.00,,,0.00,WUHU216DAVISVP2,2013-03-29 17:12:00,
2013-03-29 13:13:00,45.7,27.6,29.45,NW,314,4.0,10.0,49,0.00,,,0.00,WUHU216DAVISVP2,2013-03-29 17:13:00,
2013-03-29 13:14:00,45.7,28.1,29.45,NW,314,1.0,10.0,50,0.00,,,0.00,WUHU216DAVISVP2,2013-03-29 17:14:00,
2013-03-29 13:17:00,45.9,29.3,29.45,WNW,289,4.0,10.0,52,0.00,,,0.00,WUHU216DAVISVP2,2013-03-29 17:17:00,
2013-03-29 13:18:00,46.0,29.3,29.45,WNW,289,5.0,10.0,52,0.00,,,0.00,WUHU216DAVISVP2,2013-03-29 17:18:00,
2013-03-29 13:20:00,46.1,29.4,29.45,WNW,289,4.0,10.0,52,0.00,,,0.00,WUHU216DAVISVP2,2013-03-29 17:20:00,
2013-03-29 13:22:00,46.1,28.9,29.45,WNW,296,7.0,11.0,51,0.00,,,0.00,WUHU216DAVISVP2,2013-03-29 17:22:00,
2013-03-29 13:23:00,46.1,28.4,29.45,WNW,284,8.0,11.0,50,0.00,,,0.00,WUHU216DAVISVP2,2013-03-29 17:23:00,
2013-03-29 13:25:00,46.1,28.9,29.45,NW,304,6.0,11.0,51,0.00,,,0.00,WUHU216DAVISVP2,2013-03-29 17:25:00,
2013-03-29 13:28:00,46.1,28.4,29.45,NW,324,7.0,11.0,50,0.00,,,0.00,WUHU216DAVISVP2,2013-03-29 17:28:00,
2013-03-29 13:30:00,46.1,27.4,29.45,WNW,297,5.0,11.0,48,0.00,,,0.00,WUHU216DAVISVP2,2013-03-29 17:30:00,
2013-03-29 13:33:00,46.2,28.5,29.44,WNW,297,0.0,11.0,50,0.00,,,0.00,WUHU216DAVISVP2,2013-03-29 17:33:00,
2013-03-29 13:35:00,46.4,29.2,29.45,NW,306,7.0,11.0,51,0.00,,,0.00,WUHU216DAVISVP2,2013-03-29 17:35:00,
2013-03-29 13:38:00,46.5,29.3,29.44,NW,308,3.0,11.0,51,0.00,,,0.00,WUHU216DAVISVP2,2013-03-29 17:38:00,
2013-03-29 13:39:00,46.6,29.4,29.44,WNW,293,9.0,11.0,51,0.00,,,0.00,WUHU216DAVISVP2,2013-03-29 17:39:00,
2013-03-29 13:40:00,46.6,27.9,29.44,WNW,286,2.0,10.0,48,0.00,,,0.00,WUHU216DAVISVP2,2013-03-29 17:40:00,
2013-03-29 13:44:00,46.6,28.4,29.44,WNW,289,9.0,11.0,49,0.00,,,0.00,WUHU216DAVISVP2,2013-03-29 17:44:00,
2013-03-29 13:45:00,46.5,27.8,29.44,West,274,12.0,13.0,48,0.00,,,0.00,WUHU216DAVISVP2,2013-03-29 17:45:00,
2013-03-29 13:49:00,47.1,29.9,29.44,WNW,291,10.0,14.0,51,0.00,,,0.00,WUHU216DAVISVP2,2013-03-29 17:49:00,
2013-03-29 13:51:00,47.0,29.3,29.44,NW,305,8.0,14.0,50,0.00,,,0.00,WUHU216DAVISVP2,2013-03-29 17:51:00,
2013-03-29 13:54:00,46.7,29.5,29.44,NW,317,4.0,14.0,51,0.00,,,0.00,WUHU216DAVISVP2,2013-03-29 17:54:00,
2013-03-29 13:56:00,46.8,29.6,29.44,NW,317,5.0,14.0,51,0.00,,,0.00,WUHU216DAVISVP2,2013-03-29 17:56:00,
2013-03-29 13:59:00,47.1,29.9,29.44,NE,46,6.0,14.0,51,0.00,,,0.00,WUHU216DAVISVP2,2013-03-29 17:59:00,
2013-03-29 14:00:00,47.2,30.0,29.44,ENE,61,2.0,14.0,51,0.00,,,0.00,WUHU216DAVISVP2,2013-03-29 18:00:00,
2013-03-29 14:01:00,47.4,30.2,29.44,NE,46,0.0,14.0,51,0.00,,,0.00,WUHU216DAVISVP2,2013-03-29 18:01:00,
2013-03-29 14:04:00,47.8,30.5,29.44,NW,320,5.0,13.0,51,0.00,,,0.00,WUHU216DAVISVP2,2013-03-29 18:04:00,
2013-03-29 14:05:00,47.9,30.1,29.43,NW,320,0.0,12.0,50,0.00,,,0.00,WUHU216DAVISVP2,2013-03-29 18:05:00,
2013-03-29 14:07:00,47.9,29.6,29.43,NW,320,1.0,12.0,49,0.00,,,0.00,WUHU216DAVISVP2,2013-03-29 18:07:00,
2013-03-29 14:09:00,48.4,30.6,29.43,NE,39,1.0,10.0,50,0.00,,,0.00,WUHU216DAVISVP2,2013-03-29 18:09:00,
2013-03-29 14:10:00,48.5,30.7,29.43,NNW,341,5.0,10.0,50,0.00,,,0.00,WUHU216DAVISVP2,2013-03-29 18:10:00,
2013-03-29 14:12:00,48.7,30.9,29.43,North,4,6.0,9.0,50,0.00,,,0.00,WUHU216DAVISVP2,2013-03-29 18:12:00,
2013-03-29 14:14:00,48.7,29.9,29.43,WNW,302,9.0,9.0,48,0.00,,,0.00,WUHU216DAVISVP2,2013-03-29 18:14:00,
2013-03-29 14:15:00,48.6,29.8,29.43,NW,321,8.0,10.0,48,0.00,,,0.00,WUHU216DAVISVP2,2013-03-29 18:15:00,
2013-03-29 14:17:00,48.3,29.5,29.43,WNW,284,9.0,11.0,48,0.00,,,0.00,WUHU216DAVISVP2,2013-03-29 18:17:00,
2013-03-29 14:19:00,48.1,29.3,29.43,NW,321,4.0,11.0,48,0.00,,,0.00,WUHU216DAVISVP2,2013-03-29 18:19:00,
2013-03-29 14:20:00,48.0,29.2,29.43,NW,321,2.0,11.0,48,0.00,,,0.00,WUHU216DAVISVP2,2013-03-29 18:20:00,
2013-03-29 14:23:00,47.9,29.1,29.43,NW,321,0.0,11.0,48,0.00,,,0.00,WUHU216DAVISVP2,2013-03-29 18:23:00,
2013-03-29 14:24:00,48.0,29.2,29.43,NW,314,4.0,11.0,48,0.00,,,0.00,WUHU216DAVISVP2,2013-03-29 18:24:00,
2013-03-29 14:25:00,48.1,29.8,29.43,NNW,328,6.0,11.0,49,0.00,,,0.00,WUHU216DAVISVP2,2013-03-29 18:25:00,
2013-03-29 14:28:00,48.1,29.3,29.43,WSW,258,7.0,11.0,48,0.00,,,0.00,WUHU216DAVISVP2,2013-03-29 18:28:00,
2013-03-29 14:29:00,48.1,29.3,29.43,NW,310,8.0,11.0,48,0.00,,,0.00,WUHU216DAVISVP2,2013-03-29 18:29:00,
2013-03-29 14:30:00,48.1,29.3,29.43,NW,318,10.0,11.0,48,0.00,,,0.00,WUHU216DAVISVP2,2013-03-29 18:30:00,
2013-03-29 14:33:00,48.1,29.8,29.42,NW,312,2.0,11.0,49,0.00,,,0.00,WUHU216DAVISVP2,2013-03-29 18:33:00,
2013-03-29 14:35:00,48.3,30.5,29.42,West,273,5.0,11.0,50,0.00,,,0.00,WUHU216DAVISVP2,2013-03-29 18:35:00,
2013-03-29 14:36:00,48.5,30.7,29.42,NW,307,8.0,10.0,50,0.00,,,0.00,WUHU216DAVISVP2,2013-03-29 18:36:00,
2013-03-29 14:38:00,48.4,29.6,29.42,NW,305,5.0,10.0,48,0.00,,,0.00,WUHU216DAVISVP2,2013-03-29 18:38:00,
2013-03-29 14:39:00,48.4,30.1,29.42,NW,309,3.0,10.0,49,0.00,,,0.00,WUHU216DAVISVP2,2013-03-29 18:39:00,
2013-03-29 14:40:00,48.4,30.1,29.42,NW,316,5.0,10.0,49,0.00,,,0.00,WUHU216DAVISVP2,2013-03-29 18:40:00,
2013-03-29 14:41:00,48.5,30.2,29.42,NW,310,7.0,10.0,49,0.00,,,0.00,WUHU216DAVISVP2,2013-03-29 18:41:00,
2013-03-29 14:43:00,48.7,30.9,29.42,WNW,288,5.0,10.0,50,0.00,,,0.00,WUHU216DAVISVP2,2013-03-29 18:43:00,
2013-03-29 14:45:00,49.0,30.1,29.42,West,279,6.0,13.0,48,0.00,,,0.00,WUHU216DAVISVP2,2013-03-29 18:45:00,
2013-03-29 14:46:00,49.3,30.4,29.42,NW,322,4.0,13.0,48,0.00,,,0.00,WUHU216DAVISVP2,2013-03-29 18:46:00,
2013-03-29 14:48:00,49.5,30.6,29.42,North,4,5.0,13.0,48,0.00,,,0.00,WUHU216DAVISVP2,2013-03-29 18:48:00,
2013-03-29 14:50:00,49.7,30.3,29.42,NNW,346,5.0,13.0,47,0.00,,,0.00,WUHU216DAVISVP2,2013-03-29 18:50:00,
2013-03-29 14:51:00,49.6,29.0,29.42,WNW,289,7.0,13.0,45,0.00,,,0.00,WUHU216DAVISVP2,2013-03-29 18:51:00,
2013-03-29 14:53:00,49.4,29.9,29.42,NNW,339,8.0,13.0,47,0.00,,,0.00,WUHU216DAVISVP2,2013-03-29 18:53:00,
2013-03-29 14:55:00,49.4,29.9,29.42,NW,305,6.0,13.0,47,0.00,,,0.00,WUHU216DAVISVP2,2013-03-29 18:55:00,
2013-03-29 14:56:00,49.4,29.9,29.42,NW,312,10.0,13.0,47,0.00,,,0.00,WUHU216DAVISVP2,2013-03-29 18:56:00,
2013-03-29 14:57:00,49.3,30.4,29.42,WNW,285,9.0,13.0,48,0.00,,,0.00,WUHU216DAVISVP2,2013-03-29 18:57:00,
2013-03-29 14:58:00,49.0,29.6,29.42,WNW,295,11.0,14.0,47,0.00,,,0.00,WUHU216DAVISVP2,2013-03-29 18:58:00,
2013-03-29 15:00:00,48.8,29.4,29.42,WNW,287,7.0,14.0,47,0.00,,,0.00,WUHU216DAVISVP2,2013-03-29 19:00:00,
2013-03-29 15:01:00,48.7,29.3,29.42,West,280,10.0,14.0,47,0.00,,,0.00,WUHU216DAVISVP2,2013-03-29 19:01:00,
2013-03-29 15:02:00,48.6,28.6,29.42,WNW,291,6.0,14.0,46,0.00,,,0.00,WUHU216DAVISVP2,2013-03-29 19:02:00,
2013-03-29 15:03:00,48.7,29.3,29.42,WNW,291,1.0,14.0,47,0.00,,,0.00,WUHU216DAVISVP2,2013-03-29 19:03:00,
2013-03-29 15:05:00,49.0,30.1,29.41,NW,325,6.0,14.0,48,0.00,,,0.00,WUHU216DAVISVP2,2013-03-29 19:05:00,
2013-03-29 15:06:00,49.1,30.2,29.41,NW,314,5.0,14.0,48,0.00,,,0.00,WUHU216DAVISVP2,2013-03-29 19:06:00,
2013-03-29 15:07:00,49.4,30.5,29.42,NW,307,6.0,14.0,48,0.00,,,0.00,WUHU216DAVISVP2,2013-03-29 19:07:00,
2013-03-29 15:09:00,49.5,30.0,29.41,WNW,299,4.0,14.0,47,0.00,,,0.00,WUHU216DAVISVP2,2013-03-29 19:09:00,
2013-03-29 15:11:00,49.4,29.4,29.41,WNW,299,4.0,14.0,46,0.00,,,0.00,WUHU216DAVISVP2,2013-03-29 19:11:00,
2013-03-29 15:12:00,49.4,29.9,29.41,WNW,299,8.0,14.0,47,0.00,,,0.00,WUHU216DAVISVP2,2013-03-29 19:12:00,
2013-03-29 15:13:00,49.4,29.4,29.41,WNW,300,6.0,14.0,46,0.00,,,0.00,WUHU216DAVISVP2,2013-03-29 19:13:00,
2013-03-29 15:14:00,49.5,28.9,29.41,WNW,299,6.0,14.0,45,0.00,,,0.00,WUHU216DAVISVP2,2013-03-29 19:14:00,
2013-03-29 15:16:00,49.5,28.9,29.41,NW,307,5.0,12.0,45,0.00,,,0.00,WUHU216DAVISVP2,2013-03-29 19:16:00,
2013-03-29 15:17:00,49.7,29.7,29.41,WNW,294,6.0,11.0,46,0.00,,,0.00,WUHU216DAVISVP2,2013-03-29 19:17:00,
2013-03-29 15:18:00,49.9,29.3,29.41,West,260,6.0,11.0,45,0.00,,,0.00,WUHU216DAVISVP2,2013-03-29 19:18:00,
2013-03-29 15:19:00,50.0,29.4,29.41,West,276,8.0,11.0,45,0.00,,,0.00,WUHU216DAVISVP2,2013-03-29 19:19:00,
2013-03-29 15:21:00,50.0,28.8,29.41,WNW,296,5.0,9.0,44,0.00,,,0.00,WUHU216DAVISVP2,2013-03-29 19:21:00,
2013-03-29 15:22:00,50.1,28.9,29.41,NNW,330,10.0,10.0,44,0.00,,,0.00,WUHU216DAVISVP2,2013-03-29 19:22:00,
2013-03-29 15:23:00,50.0,28.2,29.41,NW,325,9.0,12.0,43,0.00,,,0.00,WUHU216DAVISVP2,2013-03-29 19:23:00,
2013-03-29 15:24:00,50.0,28.8,29.41,NNW,332,6.0,12.0,44,0.00,,,0.00,WUHU216DAVISVP2,2013-03-29 19:24:00,
2013-03-29 15:26:00,50.2,29.0,29.41,NNW,344,10.0,12.0,44,0.00,,,0.00,WUHU216DAVISVP2,2013-03-29 19:26:00,
2013-03-29 15:27:00,50.2,27.8,29.41,North,4,11.0,12.0,42,0.00,,,0.00,WUHU216DAVISVP2,2013-03-29 19:27:00,
2013-03-29 15:29:00,50.1,27.1,29.40,North,4,7.0,12.0,41,0.00,,,0.00,WUHU216DAVISVP2,2013-03-29 19:29:00,
2013-03-29 15:31:00,49.9,27.6,29.40,North,4,10.0,12.0,42,0.00,,,0.00,WUHU216DAVISVP2,2013-03-29 19:31:00,
2013-03-29 15:32:00,49.8,27.5,29.40,North,4,9.0,12.0,42,0.00,,,0.00,WUHU216DAVISVP2,2013-03-29 19:32:00,
2013-03-29 15:34:00,49.8,27.5,29.40,North,354,5.0,12.0,42,0.00,,,0.00,WUHU216DAVISVP2,2013-03-29 19:34:00,
2013-03-29 15:36:00,49.7,26.8,29.40,NW,322,6.0,12.0,41,0.00,,,0.00,WUHU216DAVISVP2,2013-03-29 19:36:00,
2013-03-29 15:38:00,49.7,26.8,29.40,WNW,291,5.0,12.0,41,0.00,,,0.00,WUHU216DAVISVP2,2013-03-29 19:38:00,
2013-03-29 15:39:00,49.6,26.7,29.40,NNW,328,5.0,12.0,41,0.00,,,0.00,WUHU216DAVISVP2,2013-03-29 19:39:00,
2013-03-29 15:42:00,49.7,27.4,29.40,NNW,345,7.0,12.0,42,0.00,,,0.00,WUHU216DAVISVP2,2013-03-29 19:42:00,
2013-03-29 15:43:00,49.8,28.6,29.40,WNW,288,8.0,12.0,44,0.00,,,0.00,WUHU216DAVISVP2,2013-03-29 19:43:00,
2013-03-29 15:44:00,50.0,28.2,29.40,NW,326,9.0,12.0,43,0.00,,,0.00,WUHU216DAVISVP2,2013-03-29 19:44:00,
2013-03-29 15:47:00,50.0,27.6,29.40,NE,43,7.0,12.0,42,0.00,,,0.00,WUHU216DAVISVP2,2013-03-29 19:47:00,
2013-03-29 15:48:00,50.0,27.6,29.40,NNW,328,4.0,12.0,42,0.00,,,0.00,WUHU216DAVISVP2,2013-03-29 19:48:00,
2013-03-29 15:49:00,50.1,28.9,29.40,NW,305,6.0,12.0,44,0.00,,,0.00,WUHU216DAVISVP2,2013-03-29 19:49:00,
2013-03-29 15:52:00,50.0,28.2,29.40,West,277,2.0,13.0,43,0.00,,,0.00,WUHU216DAVISVP2,2013-03-29 19:52:00,
2013-03-29 15:53:00,50.2,29.0,29.40,NW,305,9.0,13.0,44,0.00,,,0.00,WUHU216DAVISVP2,2013-03-29 19:53:00,
2013-03-29 15:54:00,50.2,28.4,29.40,WNW,301,8.0,13.0,43,0.00,,,0.00,WUHU216DAVISVP2,2013-03-29 19:54:00,
2013-03-29 15:57:00,50.3,27.9,29.40,NNW,347,6.0,13.0,42,0.00,,,0.00,WUHU216DAVISVP2,2013-03-29 19:57:00,
2013-03-29 15:58:00,50.3,27.9,29.40,North,354,9.0,13.0,42,0.00,,,0.00,WUHU216DAVISVP2,2013-03-29 19:58:00,
2013-03-29 15:59:00,50.3,27.3,29.40,North,10,8.0,13.0,41,0.00,,,0.00,WUHU216DAVISVP2,2013-03-29 19:59:00,
2013-03-29 16:02:00,50.2,27.2,29.39,NNE,18,5.0,13.0,41,0.00,,,0.00,WUHU216DAVISVP2,2013-03-29 20:02:00,
2013-03-29 16:04:00,50.2,27.2,29.39,NW,307,1.0,13.0,41,0.00,,,0.00,WUHU216DAVISVP2,2013-03-29 20:04:00,
2013-03-29 16:07:00,50.5,28.1,29.39,WNW,287,5.0,13.0,42,0.00,,,0.00,WUHU216DAVISVP2,2013-03-29 20:07:00,
2013-03-29 16:09:00,50.6,28.2,29.39,WNW,303,6.0,11.0,42,0.00,,,0.00,WUHU216DAVISVP2,2013-03-29 20:09:00,
2013-03-29 16:12:00,50.9,29.1,29.39,NNE,31,8.0,14.0,43,0.00,,,0.00,WUHU216DAVISVP2,2013-03-29 20:12:00,
2013-03-29 16:14:00,51.0,28.5,29.39,WNW,293,6.0,14.0,42,0.00,,,0.00,WUHU216DAVISVP2,2013-03-29 20:14:00,
2013-03-29 16:17:00,51.0,28.5,29.39,NW,310,11.0,14.0,42,0.00,,,0.00,WUHU216DAVISVP2,2013-03-29 20:17:00,
2013-03-29 16:19:00,50.9,27.2,29.39,North,359,10.0,14.0,40,0.00,,,0.00,WUHU216DAVISVP2,2013-03-29 20:19:00,
2013-03-29 16:22:00,50.5,26.9,29.39,North,4,10.0,14.0,40,0.00,,,0.00,WUHU216DAVISVP2,2013-03-29 20:22:00,
2013-03-29 16:24:00,50.4,27.4,29.39,NNE,23,10.0,14.0,41,0.00,,,0.00,WUHU216DAVISVP2,2013-03-29 20:24:00,
2013-03-29 16:27:00,50.2,26.6,29.39,NNW,333,1.0,14.0,40,0.00,,,0.00,WUHU216DAVISVP2,2013-03-29 20:27:00,
2013-03-29 16:29:00,50.2,27.2,29.39,North,354,5.0,14.0,41,0.00,,,0.00,WUHU216DAVISVP2,2013-03-29 20:29:00,
2013-03-29 16:30:00,50.2,27.8,29.39,North,4,10.0,14.0,42,0.00,,,0.00,WUHU216DAVISVP2,2013-03-29 20:30:00,
2013-03-29 16:33:00,50.7,27.1,29.39,NNW,335,9.0,14.0,40,0.00,,,0.00,WUHU216DAVISVP2,2013-03-29 20:33:00,
2013-03-29 16:35:00,50.8,27.2,29.39,North,354,8.0,14.0,40,0.00,,,0.00,WUHU216DAVISVP2,2013-03-29 20:35:00,
2013-03-29 16:38:00,50.6,27.0,29.39,NW,304,7.0,13.0,40,0.00,,,0.00,WUHU216DAVISVP2,2013-03-29 20:38:00,
2013-03-29 16:39:00,50.8,27.8,29.39,NNW,334,12.0,13.0,41,0.00,,,0.00,WUHU216DAVISVP2,2013-03-29 20:39:00,
2013-03-29 16:40:00,50.8,27.2,29.39,NNW,332,11.0,13.0,40,0.00,,,0.00,WUHU216DAVISVP2,2013-03-29 20:40:00,
2013-03-29 16:43:00,50.6,27.6,29.39,NNW,342,11.0,13.0,41,0.00,,,0.00,WUHU216DAVISVP2,2013-03-29 20:43:00,
2013-03-29 16:45:00,50.6,27.6,29.38,NNW,345,8.0,13.0,41,0.00,,,0.00,WUHU216DAVISVP2,2013-03-29 20:45:00,
2013-03-29 16:48:00,50.8,27.8,29.38,NW,314,8.0,13.0,41,0.00,,,0.00,WUHU216DAVISVP2,2013-03-29 20:48:00,
2013-03-29 16:50:00,50.9,27.9,29.38,NW,312,7.0,13.0,41,0.00,,,0.00,WUHU216DAVISVP2,2013-03-29 20:50:00,
2013-03-29 16:53:00,50.9,26.6,29.38,WNW,299,10.0,15.0,39,0.00,,,0.00,WUHU216DAVISVP2,2013-03-29 20:53:00,
2013-03-29 16:55:00,50.8,26.5,29.38,WNW,301,6.0,15.0,39,0.00,,,0.00,WUHU216DAVISVP2,2013-03-29 20:55:00,
2013-03-29 16:58:00,50.9,27.2,29.38,NNW,331,8.0,15.0,40,0.00,,,0.00,WUHU216DAVISVP2,2013-03-29 20:58:00,
2013-03-29 17:00:00,50.8,27.2,29.38,NNW,332,8.0,15.0,40,0.00,,,0.00,WUHU216DAVISVP2,2013-03-29 21:00:00,
2013-03-29 17:03:00,50.7,27.1,29.38,North,350,9.0,15.0,40,0.00,,,0.00,WUHU216DAVISVP2,2013-03-29 21:03:00,
2013-03-29 17:05:00,50.7,27.1,29.38,NW,326,5.0,15.0,40,0.00,,,0.00,WUHU216DAVISVP2,2013-03-29 21:05:00,
2013-03-29 17:08:00,50.9,27.9,29.38,North,359,7.0,15.0,41,0.00,,,0.00,WUHU216DAVISVP2,2013-03-29 21:08:00,
2013-03-29 17:10:00,51.0,27.9,29.38,NNE,14,6.0,14.0,41,0.00,,,0.00,WUHU216DAVISVP2,2013-03-29 21:10:00,
2013-03-29 17:14:00,51.1,28.0,29.38,WNW,302,12.0,15.0,41,0.00,,,0.00,WUHU216DAVISVP2,2013-03-29 21:14:00,
2013-03-29 17:15:00,51.4,28.9,29.38,NW,324,9.0,15.0,42,0.00,,,0.00,WUHU216DAVISVP2,2013-03-29 21:15:00,
2013-03-29 17:16:00,51.4,28.3,29.38,NW,326,9.0,15.0,41,0.00,,,0.00,WUHU216DAVISVP2,2013-03-29 21:16:00,
2013-03-29 17:19:00,51.5,29.0,29.38,NW,310,12.0,15.0,42,0.00,,,0.00,WUHU216DAVISVP2,2013-03-29 21:19:00,
2013-03-29 17:20:00,51.2,26.9,29.38,WNW,296,10.0,15.0,39,0.00,,,0.00,WUHU216DAVISVP2,2013-03-29 21:20:00,
2013-03-29 17:21:00,51.2,26.9,29.38,WNW,295,11.0,15.0,39,0.00,,,0.00,WUHU216DAVISVP2,2013-03-29 21:21:00,
2013-03-29 17:24:00,50.8,26.5,29.38,NNW,328,9.0,15.0,39,0.00,,,0.00,WUHU216DAVISVP2,2013-03-29 21:24:00,
2013-03-29 17:26:00,50.9,27.9,29.38,NW,310,6.0,15.0,41,0.00,,,0.00,WUHU216DAVISVP2,2013-03-29 21:26:00,
2013-03-29 17:29:00,51.0,27.3,29.38,NW,308,11.0,15.0,40,0.00,,,0.00,WUHU216DAVISVP2,2013-03-29 21:29:00,
2013-03-29 17:31:00,51.0,26.7,29.38,West,278,9.0,15.0,39,0.00,,,0.00,WUHU216DAVISVP2,2013-03-29 21:31:00,
2013-03-29 17:32:00,51.1,26.8,29.38,NW,308,12.0,15.0,39,0.00,,,0.00,WUHU216DAVISVP2,2013-03-29 21:32:00,
2013-03-29 17:34:00,51.2,26.9,29.38,NW,321,9.0,15.0,39,0.00,,,0.00,WUHU216DAVISVP2,2013-03-29 21:34:00,
2013-03-29 17:36:00,51.3,26.3,29.38,NW,321,10.0,15.0,38,0.00,,,0.00,WUHU216DAVISVP2,2013-03-29 21:36:00,
2013-03-29 17:37:00,51.3,26.3,29.38,West,278,7.0,15.0,38,0.00,,,0.00,WUHU216DAVISVP2,2013-03-29 21:37:00,
2013-03-29 17:39:00,51.6,27.2,29.38,NW,312,10.0,14.0,39,0.00,,,0.00,WUHU216DAVISVP2,2013-03-29 21:39:00,
2013-03-29 17:42:00,51.8,27.4,29.38,North,354,8.0,14.0,39,0.00,,,0.00,WUHU216DAVISVP2,2013-03-29 21:42:00,
2013-03-29 17:44:00,51.8,28.1,29.38,NNW,328,6.0,14.0,40,0.00,,,0.00,WUHU216DAVISVP2,2013-03-29 21:44:00,
2013-03-29 17:47:00,51.8,28.7,29.38,NW,319,8.0,14.0,41,0.00,,,0.00,WUHU216DAVISVP2,2013-03-29 21:47:00,
2013-03-29 17:49:00,51.8,26.8,29.38,NNW,341,9.0,14.0,38,0.00,,,0.00,WUHU216DAVISVP2,2013-03-29 21:49:00,
2013-03-29 17:52:00,51.8,26.8,29.37,North,359,10.0,12.0,38,0.00,,,0.00,WUHU216DAVISVP2,2013-03-29 21:52:00,
2013-03-29 17:55:00,51.9,28.1,29.37,NW,322,9.0,13.0,40,0.00,,,0.00,WUHU216DAVISVP2,2013-03-29 21:55:00,
2013-03-29 17:57:00,52.0,28.2,29.37,NW,322,8.0,13.0,40,0.00,,,0.00,WUHU216DAVISVP2,2013-03-29 21:57:00,
2013-03-29 17:58:00,52.0,27.6,29.37,NW,319,8.0,13.0,39,0.00,,,0.00,WUHU216DAVISVP2,2013-03-29 21:58:00,
2013-03-29 18:00:00,51.8,27.4,29.37,NW,305,8.0,13.0,39,0.00,,,0.00,WUHU216DAVISVP2,2013-03-29 22:00:00,
2013-03-29 18:02:00,51.5,27.2,29.37,NW,322,6.0,13.0,39,0.00,,,0.00,WUHU216DAVISVP2,2013-03-29 22:02:00,
2013-03-29 18:03:00,51.4,27.1,29.37,WNW,283,6.0,13.0,39,0.00,,,0.00,WUHU216DAVISVP2,2013-03-29 22:03:00,
2013-03-29 18:05:00,51.3,27.0,29.37,NW,307,4.0,13.0,39,0.00,,,0.00,WUHU216DAVISVP2,2013-03-29 22:05:00,
2013-03-29 18:08:00,51.2,27.5,29.37,NW,305,5.0,13.0,40,0.00,,,0.00,WUHU216DAVISVP2,2013-03-29 22:08:00,
2013-03-29 18:10:00,51.3,27.6,29.38,NW,313,5.0,13.0,40,0.00,,,0.00,WUHU216DAVISVP2,2013-03-29 22:10:00,
2013-03-29 18:13:00,51.4,27.7,29.37,NNW,335,4.0,11.0,40,0.00,,,0.00,WUHU216DAVISVP2,2013-03-29 22:13:00,
2013-03-29 18:15:00,51.5,27.3,29.37,NW,306,7.0,11.0,39,0.00,,,0.00,WUHU216DAVISVP2,2013-03-29 22:15:00,
2013-03-29 18:18:00,51.7,27.5,29.37,NW,318,4.0,11.0,39,0.00,,,0.00,WUHU216DAVISVP2,2013-03-29 22:18:00,
2013-03-29 18:20:00,51.8,26.3,29.37,NW,316,8.0,10.0,37,0.00,,,0.00,WUHU216DAVISVP2,2013-03-29 22:20:00,
2013-03-29 18:23:00,51.7,26.9,29.37,NW,324,6.0,9.0,38,0.00,,,0.00,WUHU216DAVISVP2,2013-03-29 22:23:00,
2013-03-29 18:24:00,51.7,26.2,29.37,NNW,328,5.0,9.0,37,0.00,,,0.00,WUHU216DAVISVP2,2013-03-29 22:24:00,
2013-03-29 18:25:00,51.6,26.1,29.37,NNW,330,4.0,9.0,37,0.00,,,0.00,WUHU216DAVISVP2,2013-03-29 22:25:00,
2013-03-29 18:28:00,51.7,27.5,29.37,NW,312,7.0,9.0,39,0.00,,,0.00,WUHU216DAVISVP2,2013-03-29 22:28:00,
2013-03-29 18:29:00,51.7,26.2,29.37,NW,310,6.0,9.0,37,0.00,,,0.00,WUHU216DAVISVP2,2013-03-29 22:29:00,
2013-03-29 18:30:00,51.7,26.2,29.37,NW,305,6.0,9.0,37,0.00,,,0.00,WUHU216DAVISVP2,2013-03-29 22:30:00,
2013-03-29 18:33:00,51.7,25.6,29.37,WNW,303,11.0,11.0,36,0.00,,,0.00,WUHU216DAVISVP2,2013-03-29 22:33:00,
2013-03-29 18:34:00,51.7,25.6,29.37,WNW,298,8.0,13.0,36,0.00,,,0.00,WUHU216DAVISVP2,2013-03-29 22:34:00,
2013-03-29 18:36:00,51.7,25.6,29.37,WNW,291,9.0,13.0,36,0.00,,,0.00,WUHU216DAVISVP2,2013-03-29 22:36:00,
2013-03-29 18:38:00,51.7,25.6,29.37,NW,307,9.0,13.0,36,0.00,,,0.00,WUHU216DAVISVP2,2013-03-29 22:38:00,
2013-03-29 18:39:00,51.6,26.1,29.37,NW,309,10.0,13.0,37,0.00,,,0.00,WUHU216DAVISVP2,2013-03-29 22:39:00,
2013-03-29 18:41:00,51.7,26.9,29.37,NNW,334,8.0,13.0,38,0.00,,,0.00,WUHU216DAVISVP2,2013-03-29 22:41:00,
2013-03-29 18:43:00,51.7,26.2,29.37,NW,322,5.0,13.0,37,0.00,,,0.00,WUHU216DAVISVP2,2013-03-29 22:43:00,
2013-03-29 18:44:00,51.7,26.2,29.37,NNW,337,7.0,13.0,37,0.00,,,0.00,WUHU216DAVISVP2,2013-03-29 22:44:00,
2013-03-29 18:45:00,51.7,25.6,29.37,NNW,339,6.0,13.0,36,0.00,,,0.00,WUHU216DAVISVP2,2013-03-29 22:45:00,
2013-03-29 18:46:00,51.7,26.2,29.37,NNW,332,4.0,13.0,37,0.00,,,0.00,WUHU216DAVISVP2,2013-03-29 22:46:00,
2013-03-29 18:48:00,51.7,26.0,29.37,NW,321,8.0,13.0,37,0.00,,,0.00,WUHU216DAVISVP2,2013-03-29 22:48:00,
2013-03-29 18:50:00,51.7,26.0,29.37,WNW,289,7.0,13.0,37,0.00,,,0.00,WUHU216DAVISVP2,2013-03-29 22:50:00,
2013-03-29 18:51:00,51.7,26.7,29.37,NW,325,6.0,13.0,38,0.00,,,0.00,WUHU216DAVISVP2,2013-03-29 22:51:00,
2013-03-29 18:53:00,51.7,26.0,29.37,NW,321,4.0,12.0,37,0.00,,,0.00,WUHU216DAVISVP2,2013-03-29 22:53:00,
2013-03-29 18:55:00,51.7,26.0,29.37,NW,323,6.0,12.0,37,0.00,,,0.00,WUHU216DAVISVP2,2013-03-29 22:55:00,
2013-03-29 18:56:00,51.7,26.0,29.37,NW,326,5.0,12.0,37,0.00,,,0.00,WUHU216DAVISVP2,2013-03-29 22:56:00,
2013-03-29 18:58:00,51.7,25.4,29.37,WNW,295,6.0,9.0,36,0.00,,,0.00,WUHU216DAVISVP2,2013-03-29 22:58:00,
2013-03-29 19:00:00,51.6,25.3,29.37,WNW,301,6.0,9.0,36,0.00,,,0.00,WUHU216DAVISVP2,2013-03-29 23:00:00,
2013-03-29 19:02:00,51.5,25.2,29.37,WNW,301,6.0,9.0,36,0.00,,,0.00,WUHU216DAVISVP2,2013-03-29 23:02:00,
2013-03-29 19:03:00,51.5,25.2,29.37,WNW,293,6.0,9.0,36,0.00,,,0.00,WUHU216DAVISVP2,2013-03-29 23:03:00,
2013-03-29 19:05:00,51.5,25.9,29.37,NW,324,4.0,9.0,37,0.00,,,0.00,WUHU216DAVISVP2,2013-03-29 23:05:00,
2013-03-29 19:07:00,51.5,25.9,29.37,West,278,4.0,9.0,37,0.00,,,0.00,WUHU216DAVISVP2,2013-03-29 23:07:00,
2013-03-29 19:08:00,51.5,25.9,29.37,WNW,299,5.0,9.0,37,0.00,,,0.00,WUHU216DAVISVP2,2013-03-29 23:08:00,
2013-03-29 19:10:00,51.5,26.5,29.37,NW,315,5.0,8.0,38,0.00,,,0.00,WUHU216DAVISVP2,2013-03-29 23:10:00,
2013-03-29 19:11:00,51.5,26.5,29.37,NW,319,7.0,8.0,38,0.00,,,0.00,WUHU216DAVISVP2,2013-03-29 23:11:00,
2013-03-29 19:12:00,51.5,26.5,29.37,NW,314,6.0,8.0,38,0.00,,,0.00,WUHU216DAVISVP2,2013-03-29 23:12:00,
2013-03-29 19:13:00,51.5,27.2,29.37,NNE,18,7.0,9.0,39,0.00,,,0.00,WUHU216DAVISVP2,2013-03-29 23:13:00,
2013-03-29 19:16:00,51.4,26.4,29.37,NE,36,6.0,9.0,38,0.00,,,0.00,WUHU216DAVISVP2,2013-03-29 23:16:00,
2013-03-29 19:17:00,51.4,26.4,29.37,NE,36,5.0,9.0,38,0.00,,,0.00,WUHU216DAVISVP2,2013-03-29 23:17:00,
2013-03-29 19:19:00,51.4,26.4,29.37,NE,36,4.0,9.0,38,0.00,,,0.00,WUHU216DAVISVP2,2013-03-29 23:19:00,
2013-03-29 19:21:00,51.4,26.4,29.37,NE,37,2.0,9.0,38,0.00,,,0.00,WUHU216DAVISVP2,2013-03-29 23:21:00,
2013-03-29 19:22:00,51.4,26.4,29.37,NE,36,1.0,9.0,38,0.00,,,0.00,WUHU216DAVISVP2,2013-03-29 23:22:00,
2013-03-29 19:24:00,51.5,27.2,29.37,NE,36,2.0,9.0,39,0.00,,,0.00,WUHU216DAVISVP2,2013-03-29 23:24:00,
2013-03-29 19:27:00,51.4,27.1,29.37,NE,36,1.0,9.0,39,0.00,,,0.00,WUHU216DAVISVP2,2013-03-29 23:27:00,
2013-03-29 19:28:00,51.4,26.4,29.37,NE,36,2.0,9.0,38,0.00,,,0.00,WUHU216DAVISVP2,2013-03-29 23:28:00,
2013-03-29 19:29:00,51.3,26.3,29.37,NE,36,2.0,9.0,38,0.00,,,0.00,WUHU216DAVISVP2,2013-03-29 23:29:00,
2013-03-29 19:32:00,51.3,26.3,29.37,NE,36,1.0,8.0,38,0.00,,,0.00,WUHU216DAVISVP2,2013-03-29 23:32:00,
2013-03-29 19:33:00,51.3,27.0,29.37,NE,36,2.0,7.0,39,0.00,,,0.00,WUHU216DAVISVP2,2013-03-29 23:33:00,
2013-03-29 19:34:00,51.2,26.9,29.37,NE,36,2.0,7.0,39,0.00,,,0.00,WUHU216DAVISVP2,2013-03-29 23:34:00,
2013-03-29 19:37:00,51.1,26.8,29.37,NE,36,2.0,5.0,39,0.00,,,0.00,WUHU216DAVISVP2,2013-03-29 23:37:00,
2013-03-29 19:38:00,51.1,26.8,29.37,NE,36,2.0,5.0,39,0.00,,,0.00,WUHU216DAVISVP2,2013-03-29 23:38:00,
2013-03-29 19:39:00,51.1,26.8,29.37,NE,36,4.0,5.0,39,0.00,,,0.00,WUHU216DAVISVP2,2013-03-29 23:39:00,
2013-03-29 19:42:00,51.0,27.9,29.37,NE,36,3.0,6.0,41,0.00,,,0.00,WUHU216DAVISVP2,2013-03-29 23:42:00,
2013-03-29 19:43:00,50.9,27.9,29.37,NE,36,5.0,6.0,41,0.00,,,0.00,WUHU216DAVISVP2,2013-03-29 23:43:00,
2013-03-29 19:44:00,50.9,27.9,29.37,NE,36,5.0,6.0,41,0.00,,,0.00,WUHU216DAVISVP2,2013-03-29 23:44:00,
2013-03-29 19:48:00,50.6,27.6,29.37,NE,36,4.0,6.0,41,0.00,,,0.00,WUHU216DAVISVP2,2013-03-29 23:48:00,
2013-03-29 19:49:00,50.6,27.6,29.37,NE,36,5.0,6.0,41,0.00,,,0.00,WUHU216DAVISVP2,2013-03-29 23:49:00,
2013-03-29 19:53:00,50.3,27.9,29.37,NE,35,12.0,12.0,42,0.00,,,0.00,WUHU216DAVISVP2,2013-03-29 23:53:00,
2013-03-29 19:54:00,50.1,27.7,29.37,NNE,25,9.0,12.0,42,0.00,,,0.00,WUHU216DAVISVP2,2013-03-29 23:54:00,
2013-03-29 19:58:00,49.6,28.4,29.37,NNE,21,8.0,12.0,44,0.00,,,0.00,WUHU216DAVISVP2,2013-03-29 23:58:00,
2013-03-29 19:59:00,49.4,28.3,29.37,NE,41,9.0,12.0,44,0.00,,,0.00,WUHU216DAVISVP2,2013-03-29 23:59:00,
2013-03-29 20:03:00,48.9,27.8,29.37,NNE,29,8.0,12.0,44,0.00,,,0.00,WUHU216DAVISVP2,2013-03-30 00:03:00,
2013-03-29 20:04:00,48.8,27.7,29.37,North,11,8.0,12.0,44,0.00,,,0.00,WUHU216DAVISVP2,2013-03-30 00:04:00,
2013-03-29 20:08:00,48.4,27.9,29.37,NNE,30,8.0,12.0,45,0.00,,,0.00,WUHU216DAVISVP2,2013-03-30 00:08:00,
2013-03-29 20:09:00,48.3,27.8,29.37,NNE,31,6.0,12.0,45,0.00,,,0.00,WUHU216DAVISVP2,2013-03-30 00:09:00,
2013-03-29 20:10:00,48.2,28.3,29.37,NNE,29,6.0,12.0,46,0.00,,,0.00,WUHU216DAVISVP2,2013-03-30 00:10:00,
2013-03-29 20:13:00,47.9,28.5,29.37,NNE,23,5.0,12.0,47,0.00,,,0.00,WUHU216DAVISVP2,2013-03-30 00:13:00,
2013-03-29 20:14:00,47.9,29.1,29.37,NNE,24,6.0,11.0,48,0.00,,,0.00,WUHU216DAVISVP2,2013-03-30 00:14:00,
2013-03-29 20:15:00,47.7,28.9,29.37,NNE,23,5.0,10.0,48,0.00,,,0.00,WUHU216DAVISVP2,2013-03-30 00:15:00,
2013-03-29 20:18:00,47.5,28.7,29.37,NNE,24,5.0,10.0,48,0.00,,,0.00,WUHU216DAVISVP2,2013-03-30 00:18:00,
2013-03-29 20:19:00,47.4,29.1,29.37,NNE,24,5.0,10.0,49,0.00,,,0.00,WUHU216DAVISVP2,2013-03-30 00:19:00,
2013-03-29 20:20:00,47.3,29.0,29.37,NNE,24,4.0,9.0,49,0.00,,,0.00,WUHU216DAVISVP2,2013-03-30 00:20:00,
2013-03-29 20:23:00,47.1,28.9,29.37,NNE,24,5.0,9.0,49,0.00,,,0.00,WUHU216DAVISVP2,2013-03-30 00:23:00,
2013-03-29 20:24:00,47.0,28.8,29.37,NNE,23,4.0,9.0,49,0.00,,,0.00,WUHU216DAVISVP2,2013-03-30 00:24:00,
2013-03-29 20:25:00,47.0,28.8,29.37,NNE,24,5.0,9.0,49,0.00,,,0.00,WUHU216DAVISVP2,2013-03-30 00:25:00,
2013-03-29 20:29:00,46.6,28.4,29.37,NNE,24,4.0,8.0,49,0.00,,,0.00,WUHU216DAVISVP2,2013-03-30 00:29:00,
2013-03-29 20:30:00,46.5,28.8,29.38,NNE,23,4.0,8.0,50,0.00,,,0.00,WUHU216DAVISVP2,2013-03-30 00:30:00,
2013-03-29 20:34:00,46.3,28.6,29.38,NNE,24,5.0,8.0,50,0.00,,,0.00,WUHU216DAVISVP2,2013-03-30 00:34:00,
2013-03-29 20:35:00,46.2,28.5,29.38,NNE,24,4.0,7.0,50,0.00,,,0.00,WUHU216DAVISVP2,2013-03-30 00:35:00,
2013-03-29 20:39:00,46.0,28.4,29.38,NNE,23,3.0,6.0,50,0.00,,,0.00,WUHU216DAVISVP2,2013-03-30 00:39:00,
2013-03-29 20:40:00,46.0,28.4,29.38,NNE,24,4.0,6.0,50,0.00,,,0.00,WUHU216DAVISVP2,2013-03-30 00:40:00,
2013-03-29 20:44:00,45.9,28.3,29.38,NNE,23,5.0,7.0,50,0.00,,,0.00,WUHU216DAVISVP2,2013-03-30 00:44:00,
2013-03-29 20:45:00,45.8,28.2,29.38,NNE,24,4.0,7.0,50,0.00,,,0.00,WUHU216DAVISVP2,2013-03-30 00:45:00,
2013-03-29 20:49:00,45.7,28.1,29.38,NNE,24,4.0,7.0,50,0.00,,,0.00,WUHU216DAVISVP2,2013-03-30 00:49:00,
2013-03-29 20:50:00,45.7,28.1,29.38,NNE,23,5.0,7.0,50,0.00,,,0.00,WUHU216DAVISVP2,2013-03-30 00:50:00,
2013-03-29 20:54:00,45.4,28.3,29.38,NNE,24,6.0,7.0,51,0.00,,,0.00,WUHU216DAVISVP2,2013-03-30 00:54:00,
2013-03-29 20:55:00,45.4,28.3,29.38,NNE,23,6.0,7.0,51,0.00,,,0.00,WUHU216DAVISVP2,2013-03-30 00:55:00,
2013-03-29 21:00:00,45.1,28.0,29.38,NNE,24,6.0,7.0,51,0.00,,,0.00,WUHU216DAVISVP2,2013-03-30 01:00:00,
2013-03-29 21:01:00,45.1,28.0,29.38,NNE,24,5.0,7.0,51,0.00,,,0.00,WUHU216DAVISVP2,2013-03-30 01:01:00,
2013-03-29 21:05:00,44.9,28.3,29.38,NNE,23,6.0,7.0,52,0.00,,,0.00,WUHU216DAVISVP2,2013-03-30 01:05:00,
2013-03-29 21:06:00,44.8,28.2,29.38,NNE,23,5.0,7.0,52,0.00,,,0.00,WUHU216DAVISVP2,2013-03-30 01:06:00,
2013-03-29 21:10:00,44.6,28.0,29.38,NNE,24,5.0,7.0,52,0.00,,,0.00,WUHU216DAVISVP2,2013-03-30 01:10:00,
2013-03-29 21:11:00,44.6,28.0,29.38,NNE,24,5.0,7.0,52,0.00,,,0.00,WUHU216DAVISVP2,2013-03-30 01:11:00,
2013-03-29 21:15:00,44.4,27.9,29.38,NNE,24,4.0,7.0,52,0.00,,,0.00,WUHU216DAVISVP2,2013-03-30 01:15:00,
2013-03-29 21:16:00,44.3,27.8,29.38,NNE,24,5.0,7.0,52,0.00,,,0.00,WUHU216DAVISVP2,2013-03-30 01:16:00,
2013-03-29 21:20:00,44.2,27.7,29.38,NNE,23,5.0,7.0,52,0.00,,,0.00,WUHU216DAVISVP2,2013-03-30 01:20:00,
2013-03-29 21:22:00,44.2,27.7,29.38,NNE,23,4.0,6.0,52,0.00,,,0.00,WUHU216DAVISVP2,2013-03-30 01:22:00,
2013-03-29 21:25:00,44.2,27.2,29.39,NNE,23,5.0,6.0,51,0.00,,,0.00,WUHU216DAVISVP2,2013-03-30 01:25:00,
2013-03-29 21:27:00,44.2,27.2,29.39,NNE,23,5.0,6.0,51,0.00,,,0.00,WUHU216DAVISVP2,2013-03-30 01:27:00,
2013-03-29 21:30:00,44.3,26.8,29.39,NNE,23,4.0,6.0,50,0.00,,,0.00,WUHU216DAVISVP2,2013-03-30 01:30:00,
2013-03-29 21:32:00,44.3,27.3,29.39,NNE,24,5.0,6.0,51,0.00,,,0.00,WUHU216DAVISVP2,2013-03-30 01:32:00,
2013-03-29 21:35:00,44.2,27.2,29.39,NNE,24,2.0,6.0,51,0.00,,,0.00,WUHU216DAVISVP2,2013-03-30 01:35:00,
2013-03-29 21:36:00,44.2,27.2,29.39,NNE,24,4.0,6.0,51,0.00,,,0.00,WUHU216DAVISVP2,2013-03-30 01:36:00,
2013-03-29 21:38:00,44.2,27.2,29.39,NNE,23,3.0,6.0,51,0.00,,,0.00,WUHU216DAVISVP2,2013-03-30 01:38:00,
2013-03-29 21:40:00,44.2,27.2,29.39,NNE,24,4.0,6.0,51,0.00,,,0.00,WUHU216DAVISVP2,2013-03-30 01:40:00,
2013-03-29 21:41:00,44.1,27.1,29.39,NNE,24,2.0,6.0,51,0.00,,,0.00,WUHU216DAVISVP2,2013-03-30 01:41:00,
2013-03-29 21:42:00,44.1,27.1,29.39,NNE,24,4.0,6.0,51,0.00,,,0.00,WUHU216DAVISVP2,2013-03-30 01:42:00,
2013-03-29 21:43:00,44.1,27.1,29.39,NNE,23,2.0,6.0,51,0.00,,,0.00,WUHU216DAVISVP2,2013-03-30 01:43:00,
2013-03-29 21:45:00,44.0,27.0,29.39,NNE,24,2.0,6.0,51,0.00,,,0.00,WUHU216DAVISVP2,2013-03-30 01:45:00,
2013-03-29 21:46:00,44.0,27.0,29.39,NNE,24,3.0,6.0,51,0.00,,,0.00,WUHU216DAVISVP2,2013-03-30 01:46:00,
2013-03-29 21:47:00,43.9,26.9,29.39,NNE,24,2.0,6.0,51,0.00,,,0.00,WUHU216DAVISVP2,2013-03-30 01:47:00,
2013-03-29 21:48:00,43.9,26.9,29.39,NNE,23,1.0,6.0,51,0.00,,,0.00,WUHU216DAVISVP2,2013-03-30 01:48:00,
2013-03-29 21:50:00,43.8,26.8,29.39,NNE,23,0.0,6.0,51,0.00,,,0.00,WUHU216DAVISVP2,2013-03-30 01:50:00,
2013-03-29 21:52:00,43.8,26.8,29.39,NNE,24,0.0,6.0,51,0.00,,,0.00,WUHU216DAVISVP2,2013-03-30 01:52:00,
2013-03-29 21:53:00,43.7,26.7,29.39,NNE,24,0.0,5.0,51,0.00,,,0.00,WUHU216DAVISVP2,2013-03-30 01:53:00,
2013-03-29 21:55:00,43.6,26.6,29.39,NNE,23,0.0,5.0,51,0.00,,,0.00,WUHU216DAVISVP2,2013-03-30 01:55:00,
2013-03-29 21:57:00,43.6,26.6,29.39,NNE,24,0.0,4.0,51,0.00,,,0.00,WUHU216DAVISVP2,2013-03-30 01:57:00,
2013-03-29 21:59:00,43.5,27.0,29.39,NNE,23,0.0,4.0,52,0.00,,,0.00,WUHU216DAVISVP2,2013-03-30 01:59:00,
2013-03-29 22:01:00,43.5,27.0,29.39,NNE,24,0.0,4.0,52,0.00,,,0.00,WUHU216DAVISVP2,2013-03-30 02:01:00,
2013-03-29 22:02:00,43.4,26.9,29.39,NNE,23,0.0,4.0,52,0.00,,,0.00,WUHU216DAVISVP2,2013-03-30 02:02:00,
2013-03-29 22:03:00,43.4,26.9,29.39,NNE,23,0.0,4.0,52,0.00,,,0.00,WUHU216DAVISVP2,2013-03-30 02:03:00,
2013-03-29 22:04:00,43.3,26.3,29.39,NNE,24,0.0,4.0,51,0.00,,,0.00,WUHU216DAVISVP2,2013-03-30 02:04:00,
2013-03-29 22:06:00,43.2,26.3,29.39,NNE,24,0.0,4.0,51,0.00,,,0.00,WUHU216DAVISVP2,2013-03-30 02:06:00,
2013-03-29 22:07:00,43.1,26.2,29.39,NNE,24,0.0,2.0,51,0.00,,,0.00,WUHU216DAVISVP2,2013-03-30 02:07:00,
2013-03-29 22:08:00,43.1,26.2,29.39,NNE,24,0.0,1.0,51,0.00,,,0.00,WUHU216DAVISVP2,2013-03-30 02:08:00,
2013-03-29 22:09:00,43.0,26.1,29.39,NNE,23,0.0,1.0,51,0.00,,,0.00,WUHU216DAVISVP2,2013-03-30 02:09:00,
2013-03-29 22:11:00,42.9,25.5,29.39,NNE,23,0.0,0.0,50,0.00,,,0.00,WUHU216DAVISVP2,2013-03-30 02:11:00,
2013-03-29 22:12:00,42.9,25.5,29.39,NNE,23,0.0,0.0,50,0.00,,,0.00,WUHU216DAVISVP2,2013-03-30 02:12:00,
2013-03-29 22:13:00,42.8,25.4,29.40,NNE,24,0.0,0.0,50,0.00,,,0.00,WUHU216DAVISVP2,2013-03-30 02:13:00,
2013-03-29 22:14:00,42.8,25.4,29.40,NNE,24,0.0,0.0,50,0.00,,,0.00,WUHU216DAVISVP2,2013-03-30 02:14:00,
2013-03-29 22:17:00,42.8,25.4,29.40,NNE,23,0.0,0.0,50,0.00,,,0.00,WUHU216DAVISVP2,2013-03-30 02:17:00,
2013-03-29 22:18:00,42.8,24.9,29.40,NNE,24,1.0,1.0,49,0.00,,,0.00,WUHU216DAVISVP2,2013-03-30 02:18:00,
2013-03-29 22:19:00,42.9,25.0,29.40,NNE,23,0.0,1.0,49,0.00,,,0.00,WUHU216DAVISVP2,2013-03-30 02:19:00,
2013-03-29 22:22:00,43.0,25.1,29.40,NNE,24,0.0,1.0,49,0.00,,,0.00,WUHU216DAVISVP2,2013-03-30 02:22:00,
2013-03-29 22:23:00,43.1,25.2,29.40,NNE,23,0.0,1.0,49,0.00,,,0.00,WUHU216DAVISVP2,2013-03-30 02:23:00,
2013-03-29 22:24:00,43.1,25.2,29.40,NNE,24,0.0,1.0,49,0.00,,,0.00,WUHU216DAVISVP2,2013-03-30 02:24:00,
2013-03-29 22:27:00,43.2,24.7,29.40,NNE,24,0.0,1.0,48,0.00,,,0.00,WUHU216DAVISVP2,2013-03-30 02:27:00,
2013-03-29 22:28:00,43.2,24.7,29.40,NNE,24,0.0,1.0,48,0.00,,,0.00,WUHU216DAVISVP2,2013-03-30 02:28:00,
2013-03-29 22:29:00,43.2,24.7,29.40,NNE,23,0.0,1.0,48,0.00,,,0.00,WUHU216DAVISVP2,2013-03-30 02:29:00,
2013-03-29 22:32:00,43.2,24.2,29.40,NNE,24,1.0,1.0,47,0.00,,,0.00,WUHU216DAVISVP2,2013-03-30 02:32:00,
2013-03-29 22:33:00,43.2,24.2,29.40,NNE,24,0.0,2.0,47,0.00,,,0.00,WUHU216DAVISVP2,2013-03-30 02:33:00,
2013-03-29 22:34:00,43.2,24.2,29.40,NNE,24,0.0,2.0,47,0.00,,,0.00,WUHU216DAVISVP2,2013-03-30 02:34:00,
2013-03-29 22:37:00,43.1,24.1,29.40,NNE,24,0.0,2.0,47,0.00,,,0.00,WUHU216DAVISVP2,2013-03-30 02:37:00,
2013-03-29 22:38:00,43.0,24.0,29.40,NNE,24,0.0,2.0,47,0.00,,,0.00,WUHU216DAVISVP2,2013-03-30 02:38:00,
2013-03-29 22:39:00,42.9,24.0,29.40,NNE,24,0.0,2.0,47,0.00,,,0.00,WUHU216DAVISVP2,2013-03-30 02:39:00,
2013-03-29 22:43:00,42.8,23.9,29.40,NNE,23,0.0,2.0,47,0.00,,,0.00,WUHU216DAVISVP2,2013-03-30 02:43:00,
2013-03-29 22:44:00,42.7,23.8,29.40,NNE,24,0.0,2.0,47,0.00,,,0.00,WUHU216DAVISVP2,2013-03-30 02:44:00,
2013-03-29 22:48:00,42.6,24.2,29.40,NNE,24,0.0,2.0,48,0.00,,,0.00,WUHU216DAVISVP2,2013-03-30 02:48:00,
2013-03-29 22:50:00,42.6,24.2,29.40,NNE,23,0.0,2.0,48,0.00,,,0.00,WUHU216DAVISVP2,2013-03-30 02:50:00,
2013-03-29 22:53:00,42.4,24.0,29.40,NNE,24,0.0,1.0,48,0.00,,,0.00,WUHU216DAVISVP2,2013-03-30 02:53:00,
2013-03-29 22:55:00,42.3,23.9,29.40,NNE,24,0.0,1.0,48,0.00,,,0.00,WUHU216DAVISVP2,2013-03-30 02:55:00,
2013-03-29 22:58:00,42.2,23.8,29.40,NNE,24,0.0,1.0,48,0.00,,,0.00,WUHU216DAVISVP2,2013-03-30 02:58:00,
2013-03-29 22:59:00,42.2,23.8,29.40,NNE,24,0.0,1.0,48,0.00,,,0.00,WUHU216DAVISVP2,2013-03-30 02:59:00,
2013-03-29 23:00:00,42.2,23.8,29.40,NNE,24,0.0,1.0,48,0.00,,,0.00,WUHU216DAVISVP2,2013-03-30 03:00:00,
2013-03-29 23:03:00,42.1,23.7,29.40,NNE,24,0.0,0.0,48,0.00,,,0.00,WUHU216DAVISVP2,2013-03-30 03:03:00,
2013-03-29 23:04:00,42.1,23.7,29.40,NNE,24,0.0,0.0,48,0.00,,,0.00,WUHU216DAVISVP2,2013-03-30 03:04:00,
2013-03-29 23:05:00,42.1,23.7,29.40,NNE,24,0.0,0.0,48,0.00,,,0.00,WUHU216DAVISVP2,2013-03-30 03:05:00,
2013-03-29 23:08:00,42.1,23.7,29.40,NNE,24,0.0,0.0,48,0.00,,,0.00,WUHU216DAVISVP2,2013-03-30 03:08:00,
2013-03-29 23:09:00,42.1,24.2,29.40,NNE,24,0.0,0.0,49,0.00,,,0.00,WUHU216DAVISVP2,2013-03-30 03:09:00,
2013-03-29 23:10:00,42.1,24.7,29.40,NNE,24,0.0,0.0,50,0.00,,,0.00,WUHU216DAVISVP2,2013-03-30 03:10:00,
2013-03-29 23:13:00,42.0,24.2,29.40,NNE,24,0.0,0.0,49,0.00,,,0.00,WUHU216DAVISVP2,2013-03-30 03:13:00,
2013-03-29 23:14:00,42.0,24.2,29.40,NNE,24,0.0,0.0,49,0.00,,,0.00,WUHU216DAVISVP2,2013-03-30 03:14:00,
2013-03-29 23:15:00,41.9,24.1,29.40,NNE,24,0.0,0.0,49,0.00,,,0.00,WUHU216DAVISVP2,2013-03-30 03:15:00,
2013-03-29 23:18:00,41.8,23.5,29.40,NNE,24,0.0,0.0,48,0.00,,,0.00,WUHU216DAVISVP2,2013-03-30 03:18:00,
2013-03-29 23:19:00,41.8,23.5,29.40,NNE,24,0.0,0.0,48,0.00,,,0.00,WUHU216DAVISVP2,2013-03-30 03:19:00,
2013-03-29 23:20:00,41.7,23.4,29.40,NNE,24,0.0,0.0,48,0.00,,,0.00,WUHU216DAVISVP2,2013-03-30 03:20:00,
2013-03-29 23:23:00,41.6,23.3,29.40,NNE,24,0.0,0.0,48,0.00,,,0.00,WUHU216DAVISVP2,2013-03-30 03:23:00,
2013-03-29 23:24:00,41.5,23.2,29.40,NNE,24,0.0,0.0,48,0.00,,,0.00,WUHU216DAVISVP2,2013-03-30 03:24:00,
2013-03-29 23:25:00,41.5,23.2,29.40,NNE,24,0.0,0.0,48,0.00,,,0.00,WUHU216DAVISVP2,2013-03-30 03:25:00,
2013-03-29 23:26:00,41.5,23.2,29.40,NNE,24,0.0,0.0,48,0.00,,,0.00,WUHU216DAVISVP2,2013-03-30 03:26:00,
2013-03-29 23:28:00,41.3,23.0,29.40,NNE,24,0.0,0.0,48,0.00,,,0.00,WUHU216DAVISVP2,2013-03-30 03:28:00,
2013-03-29 23:29:00,41.3,23.0,29.40,NNE,24,0.0,0.0,48,0.00,,,0.00,WUHU216DAVISVP2,2013-03-30 03:29:00,
2013-03-29 23:30:00,41.3,23.0,29.40,NNE,24,0.0,0.0,48,0.00,,,0.00,WUHU216DAVISVP2,2013-03-30 03:30:00,
2013-03-29 23:31:00,41.2,22.9,29.40,NNE,24,0.0,0.0,48,0.00,,,0.00,WUHU216DAVISVP2,2013-03-30 03:31:00,
2013-03-29 23:33:00,41.2,23.4,29.40,NNE,24,0.0,0.0,49,0.00,,,0.00,WUHU216DAVISVP2,2013-03-30 03:33:00,
2013-03-29 23:34:00,41.1,23.3,29.40,NNE,24,0.0,0.0,49,0.00,,,0.00,WUHU216DAVISVP2,2013-03-30 03:34:00,
2013-03-29 23:35:00,41.1,23.3,29.40,NNE,24,0.0,0.0,49,0.00,,,0.00,WUHU216DAVISVP2,2013-03-30 03:35:00,
2013-03-29 23:36:00,41.1,23.3,29.40,NNE,24,0.0,0.0,49,0.00,,,0.00,WUHU216DAVISVP2,2013-03-30 03:36:00,
2013-03-29 23:38:00,41.1,23.3,29.40,NNE,24,0.0,0.0,49,0.00,,,0.00,WUHU216DAVISVP2,2013-03-30 03:38:00,
2013-03-29 23:39:00,41.0,23.3,29.40,NNE,24,0.0,0.0,49,0.00,,,0.00,WUHU216DAVISVP2,2013-03-30 03:39:00,
2013-03-29 23:40:00,41.0,23.3,29.40,NNE,24,0.0,0.0,49,0.00,,,0.00,WUHU216DAVISVP2,2013-03-30 03:40:00,
2013-03-29 23:41:00,41.0,23.3,29.40,NNE,24,0.0,0.0,49,0.00,,,0.00,WUHU216DAVISVP2,2013-03-30 03:41:00,
2013-03-29 23:43:00,40.9,23.2,29.40,NNE,24,0.0,0.0,49,0.00,,,0.00,WUHU216DAVISVP2,2013-03-30 03:43:00,
2013-03-29 23:44:00,40.9,23.2,29.40,NNE,24,0.0,0.0,49,0.00,,,0.00,WUHU216DAVISVP2,2013-03-30 03:44:00,
2013-03-29 23:45:00,40.9,23.2,29.40,NNE,24,0.0,0.0,49,0.00,,,0.00,WUHU216DAVISVP2,2013-03-30 03:45:00,
2013-03-29 23:46:00,40.8,23.1,29.40,NNE,24,0.0,0.0,49,0.00,,,0.00,WUHU216DAVISVP2,2013-03-30 03:46:00,
2013-03-29 23:48:00,40.8,23.1,29.40,NNE,24,0.0,0.0,49,0.00,,,0.00,WUHU216DAVISVP2,2013-03-30 03:48:00,
2013-03-29 23:49:00,40.7,23.5,29.40,NNE,23,0.0,0.0,50,0.00,,,0.00,WUHU216DAVISVP2,2013-03-30 03:49:00,
2013-03-29 23:50:00,40.7,23.5,29.39,NNE,24,0.0,0.0,50,0.00,,,0.00,WUHU216DAVISVP2,2013-03-30 03:50:00,
2013-03-29 23:52:00,40.7,24.0,29.39,NNE,24,0.0,0.0,51,0.00,,,0.00,WUHU216DAVISVP2,2013-03-30 03:52:00,
2013-03-29 23:53:00,40.7,23.5,29.39,NNE,24,0.0,0.0,50,0.00,,,0.00,WUHU216DAVISVP2,2013-03-30 03:53:00,
2013-03-29 23:54:00,40.7,23.5,29.39,NNE,24,0.0,0.0,50,0.00,,,0.00,WUHU216DAVISVP2,2013-03-30 03:54:00,
2013-03-29 23:55:00,40.7,23.5,29.39,NNE,24,0.0,0.0,50,0.00,,,0.00,WUHU216DAVISVP2,2013-03-30 03:55:00,
2013-03-29 23:57:00,40.6,23.4,29.39,NNE,24,0.0,0.0,50,0.00,,,0.00,WUHU216DAVISVP2,2013-03-30 03:57:00,
2013-03-29 23:58:00,40.6,23.4,29.39,NNE,24,0.0,0.0,50,0.00,,,0.00,WUHU216DAVISVP2,2013-03-30 03:58:00,